Darstellungsparameter: Aktuell verwendete Einstellungen:
Skalierung der Graphiken ... ?
xyx+y,   Skalierungsfaktor:      Skalierung: Modus: x, Faktor: 1
Darstellungszeitraum ... ?
Vom - - bis: - -   Zeitraum: 18.06.2020 - 22.06.2020
Min/Max/Avg-Anzeige ... ?
Zeige MMA aktuell
Zeige MMA Monat
Zeige MMA alles
Zeige --A aktuell
Zeige --A Monat
Zeige --A alles
Keine MMA-Anzeige
MMA:
Minimum Maximum Average (ber die Originaldaten)
MMA-Basis: 14.04.2020 - 16.05.2020
Quicknavigation für Darstellung... ?
Tage:      1T, 2T, 3T, 5T -1T -2T -3T -5T +1T +2T +3T +5T
Wochen: 1W, 2W, 3W -1W -2W -3W +1W +2W +3W
Monate: 1M, 3M, 6M -1M -3M -6M +1M +3M +6M
Jahre:    1J, 3J, 5J, 10J -1J -3J -5J -10J +1J +3J +5J +10J
Nutze für die Darstellung ... ?
Originaldaten oder Mittelwerte auf ...
Stundenbasis Tagesbasis Wochenbasis
Monatsbasis Jahresbasis      Datenbasis: Original-Daten
Darstellen als:
Statistik (Auto) Statistik J:M      Darstellung:
Zur Graphik,    zurück zur Übersicht aller Sensoren.
 
Tabellarische Datenbersicht: ?
 
Sensor: Nr:Datum:Temp:Abs-Feuchte:Windchill:Wind:
Aussen-T/F 1 18-06-2020 00:00:00 15.3 C 12.41 g/m*3 15.3 C 3.2 km/h
2 18-06-2020 00:05:00 15.2 C 12.33 g/m*3 15.2 C 1.6 km/h
3 18-06-2020 00:10:00 15.2 C 12.33 g/m*3 15.2 C 3.2 km/h
4 18-06-2020 00:15:00 15.1 C 12.26 g/m*3 15.1 C 1.6 km/h
5 18-06-2020 00:20:00 15.1 C 12.39 g/m*3 15.1 C 1.6 km/h
6 18-06-2020 00:25:00 15.1 C 12.39 g/m*3 15.1 C 1.6 km/h
7 18-06-2020 00:30:00 15.1 C 12.39 g/m*3 15.1 C 0 km/h
8 18-06-2020 00:35:00 15.1 C 12.39 g/m*3 15.1 C 0 km/h
9 18-06-2020 00:40:00 15.1 C 12.39 g/m*3 15.1 C 0 km/h
10 18-06-2020 00:45:00 15.1 C 12.39 g/m*3 15.1 C 0 km/h
11 18-06-2020 00:50:00 15 C 12.31 g/m*3 15 C 0 km/h
12 18-06-2020 00:55:00 15 C 12.31 g/m*3 15 C 0 km/h
13 18-06-2020 01:00:00 15 C 12.31 g/m*3 15 C 0 km/h
14 18-06-2020 01:05:00 15 C 12.31 g/m*3 15 C 0 km/h
15 18-06-2020 01:10:00 15 C 12.31 g/m*3 15 C 0 km/h
16 18-06-2020 01:15:00 14.9 C 12.24 g/m*3 14.9 C 1.6 km/h
17 18-06-2020 01:20:00 14.9 C 12.24 g/m*3 14.9 C 1.6 km/h
18 18-06-2020 01:25:00 14.8 C 12.16 g/m*3 14.8 C 4.8 km/h
19 18-06-2020 01:30:00 14.7 C 11.96 g/m*3 14.7 C 6.4 km/h
20 18-06-2020 01:35:00 14.6 C 11.89 g/m*3 14.6 C 6.4 km/h
21 18-06-2020 01:40:00 14.6 C 11.89 g/m*3 14.6 C 3.2 km/h
22 18-06-2020 01:45:00 14.6 C 11.89 g/m*3 14.6 C 3.2 km/h
23 18-06-2020 01:50:00 14.6 C 12.01 g/m*3 14.6 C 3.2 km/h
24 18-06-2020 01:55:00 14.5 C 11.82 g/m*3 14.5 C 4.8 km/h
25 18-06-2020 02:00:00 14.4 C 11.74 g/m*3 14.4 C 1.6 km/h
Sensor: Nr:Datum:Temp:Abs-Feuchte:Windchill:Wind:
Aussen-T/F 26 18-06-2020 02:05:00 14.4 C 11.87 g/m*3 14.4 C 1.6 km/h
27 18-06-2020 02:10:00 14.4 C 11.87 g/m*3 14.4 C 0 km/h
28 18-06-2020 02:15:00 14.5 C 11.94 g/m*3 14.5 C 1.6 km/h
29 18-06-2020 02:20:00 14.4 C 11.87 g/m*3 14.4 C 3.2 km/h
30 18-06-2020 02:25:00 14.4 C 11.87 g/m*3 14.4 C 4.8 km/h
31 18-06-2020 02:30:00 14.4 C 11.87 g/m*3 14.4 C 1.6 km/h
32 18-06-2020 02:35:00 14.4 C 11.87 g/m*3 14.4 C 1.6 km/h
33 18-06-2020 02:40:00 14.5 C 11.94 g/m*3 14.5 C 6.4 km/h
34 18-06-2020 02:45:00 14.4 C 11.87 g/m*3 14.4 C 8.1 km/h
35 18-06-2020 02:50:00 14.4 C 11.87 g/m*3 14.4 C 3.2 km/h
36 18-06-2020 02:55:00 14.4 C 11.87 g/m*3 14.4 C 4.8 km/h
37 18-06-2020 03:00:00 14.4 C 11.87 g/m*3 14.4 C 4.8 km/h
38 18-06-2020 03:05:00 14.4 C 11.87 g/m*3 14.4 C 4.8 km/h
39 18-06-2020 03:10:00 14.4 C 11.87 g/m*3 14.4 C 6.4 km/h
40 18-06-2020 03:15:00 14.4 C 11.87 g/m*3 14.4 C 8.1 km/h
41 18-06-2020 03:20:00 14.4 C 11.87 g/m*3 14.4 C 6.4 km/h
42 18-06-2020 03:25:00 14.4 C 11.87 g/m*3 14.4 C 6.4 km/h
43 18-06-2020 03:30:00 14.4 C 11.87 g/m*3 14.4 C 4.8 km/h
44 18-06-2020 03:35:00 14.4 C 11.87 g/m*3 14.4 C 9.7 km/h
45 18-06-2020 03:40:00 14.4 C 11.87 g/m*3 14.4 C 9.7 km/h
46 18-06-2020 03:45:00 14.4 C 11.87 g/m*3 14.4 C 3.2 km/h
47 18-06-2020 03:50:00 14.4 C 11.87 g/m*3 14.4 C 8.1 km/h
48 18-06-2020 03:55:00 14.4 C 11.87 g/m*3 14.4 C 6.4 km/h
49 18-06-2020 04:00:00 14.4 C 11.87 g/m*3 14.4 C 1.6 km/h
50 18-06-2020 04:05:00 14.4 C 11.87 g/m*3 14.4 C 8.1 km/h
Sensor: Nr:Datum:Temp:Abs-Feuchte:Windchill:Wind:
Aussen-T/F 51 18-06-2020 04:10:00 14.3 C 11.79 g/m*3 14.3 C 4.8 km/h
52 18-06-2020 04:15:00 14.3 C 11.79 g/m*3 14.3 C 4.8 km/h
53 18-06-2020 04:20:00 14.3 C 11.79 g/m*3 14.3 C 4.8 km/h
54 18-06-2020 04:25:00 14.3 C 11.79 g/m*3 14.3 C 4.8 km/h
55 18-06-2020 04:30:00 14.3 C 11.79 g/m*3 14.3 C 3.2 km/h
56 18-06-2020 04:35:00 14.3 C 11.79 g/m*3 14.3 C 1.6 km/h
57 18-06-2020 04:40:00 14.3 C 11.79 g/m*3 14.3 C 6.4 km/h
58 18-06-2020 04:45:00 14.3 C 11.79 g/m*3 14.3 C 4.8 km/h
59 18-06-2020 04:50:00 14.2 C 11.72 g/m*3 14.2 C 1.6 km/h
60 18-06-2020 04:55:00 14.2 C 11.72 g/m*3 14.2 C 3.2 km/h
61 18-06-2020 05:00:00 14.2 C 11.72 g/m*3 14.2 C 3.2 km/h
62 18-06-2020 05:05:00 14.2 C 11.72 g/m*3 14.2 C 4.8 km/h
63 18-06-2020 05:10:00 14.1 C 11.65 g/m*3 14.1 C 1.6 km/h
64 18-06-2020 05:15:00 14.1 C 11.65 g/m*3 14.1 C 4.8 km/h
65 18-06-2020 05:20:00 14.1 C 11.65 g/m*3 14.1 C 1.6 km/h
66 18-06-2020 05:25:00 14.1 C 11.65 g/m*3 14.1 C 0 km/h
67 18-06-2020 05:30:00 14.1 C 11.65 g/m*3 14.1 C 0 km/h
68 18-06-2020 05:35:00 14.1 C 11.65 g/m*3 14.1 C 4.8 km/h
69 18-06-2020 05:40:00 14.1 C 11.65 g/m*3 14.1 C 3.2 km/h
70 18-06-2020 05:45:00 14.1 C 11.65 g/m*3 14.1 C 3.2 km/h
71 18-06-2020 05:50:00 14 C 11.58 g/m*3 14 C 1.6 km/h
72 18-06-2020 05:55:00 14 C 11.58 g/m*3 14 C 1.6 km/h
73 18-06-2020 06:00:00 13.9 C 11.51 g/m*3 13.9 C 1.6 km/h
74 18-06-2020 06:05:00 13.9 C 11.51 g/m*3 13.9 C 1.6 km/h
75 18-06-2020 06:10:00 13.9 C 11.51 g/m*3 13.9 C 4.8 km/h
Sensor: Nr:Datum:Temp:Abs-Feuchte:Windchill:Wind:
Aussen-T/F 76 18-06-2020 06:15:00 13.9 C 11.51 g/m*3 13.9 C 6.4 km/h
77 18-06-2020 06:20:00 13.9 C 11.51 g/m*3 13.9 C 6.4 km/h
78 18-06-2020 06:25:00 13.9 C 11.51 g/m*3 13.9 C 4.8 km/h
79 18-06-2020 06:30:00 13.9 C 11.51 g/m*3 13.9 C 6.4 km/h
80 18-06-2020 06:35:00 14 C 11.58 g/m*3 14 C 3.2 km/h
81 18-06-2020 06:40:00 14 C 11.58 g/m*3 14 C 1.6 km/h
82 18-06-2020 06:45:00 14.1 C 11.65 g/m*3 14.1 C 4.8 km/h
83 18-06-2020 06:50:00 14.1 C 11.65 g/m*3 14.1 C 3.2 km/h
84 18-06-2020 06:55:00 14.1 C 11.65 g/m*3 14.1 C 4.8 km/h
85 18-06-2020 07:00:00 14.1 C 11.65 g/m*3 14.1 C 3.2 km/h
86 18-06-2020 07:05:00 14.1 C 11.65 g/m*3 14.1 C 1.6 km/h
87 18-06-2020 07:10:00 14.1 C 11.65 g/m*3 14.1 C 6.4 km/h
88 18-06-2020 07:15:00 14.1 C 11.65 g/m*3 14.1 C 3.2 km/h
89 18-06-2020 07:20:00 14.2 C 11.72 g/m*3 14.2 C 0 km/h
90 18-06-2020 07:25:00 14.2 C 11.72 g/m*3 14.2 C 0 km/h
91 18-06-2020 07:30:00 14.3 C 11.79 g/m*3 14.3 C 1.6 km/h
92 18-06-2020 07:35:00 14.4 C 11.87 g/m*3 14.4 C 0 km/h
93 18-06-2020 07:40:00 14.6 C 12.01 g/m*3 14.6 C 3.2 km/h
94 18-06-2020 07:45:00 14.6 C 12.01 g/m*3 14.6 C 0 km/h
95 18-06-2020 07:50:00 14.7 C 12.09 g/m*3 14.7 C 1.6 km/h
96 18-06-2020 07:55:00 14.7 C 12.09 g/m*3 14.7 C 4.8 km/h
97 18-06-2020 08:00:00 14.8 C 12.16 g/m*3 14.8 C 4.8 km/h
98 18-06-2020 08:05:00 14.9 C 12.11 g/m*3 14.9 C 1.6 km/h
99 18-06-2020 08:10:00 15.1 C 12.39 g/m*3 15.1 C 3.2 km/h
100 18-06-2020 08:15:00 15.2 C 12.33 g/m*3 15.2 C 3.2 km/h
Sensor: Nr:Datum:Temp:Abs-Feuchte:Windchill:Wind:
Aussen-T/F 101 18-06-2020 08:20:00 15.3 C 12.28 g/m*3 15.3 C 8.1 km/h
102 18-06-2020 08:25:00 15.4 C 12.22 g/m*3 15.4 C 4.8 km/h
103 18-06-2020 08:30:00 15.4 C 12.22 g/m*3 15.4 C 8.1 km/h
104 18-06-2020 08:35:00 15.4 C 12.09 g/m*3 15.4 C 6.4 km/h
105 18-06-2020 08:40:00 15.5 C 12.16 g/m*3 15.5 C 4.8 km/h
106 18-06-2020 08:45:00 15.6 C 12.23 g/m*3 15.6 C 8.1 km/h
107 18-06-2020 08:50:00 15.6 C 12.1 g/m*3 15.6 C 6.4 km/h
108 18-06-2020 08:55:00 15.7 C 12.31 g/m*3 15.7 C 0 km/h
109 18-06-2020 09:00:00 15.8 C 12.25 g/m*3 15.8 C 4.8 km/h
110 18-06-2020 09:05:00 15.9 C 12.19 g/m*3 15.9 C 6.4 km/h
111 18-06-2020 09:10:00 16.1 C 12.47 g/m*3 16.1 C 3.2 km/h
112 18-06-2020 09:15:00 16.1 C 12.2 g/m*3 16.1 C 6.4 km/h
113 18-06-2020 09:20:00 16.3 C 12.49 g/m*3 16.3 C 1.6 km/h
114 18-06-2020 09:25:00 16.4 C 12.28 g/m*3 16.4 C 8.1 km/h
115 18-06-2020 09:30:00 16.5 C 12.22 g/m*3 16.5 C 9.7 km/h
116 18-06-2020 09:35:00 16.6 C 12.29 g/m*3 16.6 C 8.1 km/h
117 18-06-2020 09:40:00 16.8 C 12.3 g/m*3 16.8 C 8.1 km/h
118 18-06-2020 09:45:00 16.9 C 12.37 g/m*3 16.9 C 6.4 km/h
119 18-06-2020 09:50:00 17 C 12.3 g/m*3 17 C 6.4 km/h
120 18-06-2020 09:55:00 17.1 C 12.23 g/m*3 17.1 C 12.9 km/h
121 18-06-2020 10:00:00 17.1 C 12.23 g/m*3 17.1 C 8.1 km/h
122 18-06-2020 10:05:00 17.2 C 12.45 g/m*3 17.2 C 0 km/h
123 18-06-2020 10:10:00 17.3 C 12.23 g/m*3 17.3 C 6.4 km/h
124 18-06-2020 10:15:00 17.3 C 12.23 g/m*3 17.3 C 6.4 km/h
125 18-06-2020 10:20:00 17.6 C 12.6 g/m*3 17.6 C 6.4 km/h
Sensor: Nr:Datum:Temp:Abs-Feuchte:Windchill:Wind:
Aussen-T/F 126 18-06-2020 10:25:00 17.7 C 12.52 g/m*3 17.7 C 11.3 km/h
127 18-06-2020 10:30:00 17.7 C 12.37 g/m*3 17.7 C 4.8 km/h
128 18-06-2020 10:35:00 17.7 C 12.22 g/m*3 17.7 C 6.4 km/h
129 18-06-2020 10:40:00 17.8 C 12.45 g/m*3 17.8 C 8.1 km/h
130 18-06-2020 10:45:00 18 C 12.44 g/m*3 18 C 8.1 km/h
131 18-06-2020 10:50:00 18.3 C 12.66 g/m*3 18.3 C 8.1 km/h
132 18-06-2020 10:55:00 18.4 C 12.9 g/m*3 18.4 C 8.1 km/h
133 18-06-2020 11:00:00 18.4 C 12.58 g/m*3 18.4 C 8.1 km/h
134 18-06-2020 11:05:00 18.4 C 12.58 g/m*3 18.4 C 1.6 km/h
135 18-06-2020 11:10:00 18.5 C 12.66 g/m*3 18.5 C 3.2 km/h
136 18-06-2020 11:15:00 18.6 C 12.41 g/m*3 18.6 C 9.7 km/h
137 18-06-2020 11:20:00 18.7 C 12.65 g/m*3 18.7 C 3.2 km/h
138 18-06-2020 11:25:00 18.8 C 12.4 g/m*3 18.8 C 4.8 km/h
139 18-06-2020 11:30:00 18.9 C 12.64 g/m*3 18.9 C 6.4 km/h
140 18-06-2020 11:35:00 18.8 C 12.08 g/m*3 18.8 C 9.7 km/h
141 18-06-2020 11:40:00 18.8 C 12.72 g/m*3 18.8 C 4.8 km/h
142 18-06-2020 11:45:00 18.8 C 12.4 g/m*3 18.8 C 8.1 km/h
143 18-06-2020 11:50:00 19.1 C 12.29 g/m*3 19.1 C 9.7 km/h
144 18-06-2020 11:55:00 19.2 C 12.53 g/m*3 19.2 C 4.8 km/h
145 18-06-2020 12:00:00 19.3 C 12.44 g/m*3 19.3 C 9.7 km/h
146 18-06-2020 12:05:00 19.4 C 12.35 g/m*3 19.4 C 9.7 km/h
147 18-06-2020 12:10:00 19.6 C 12.66 g/m*3 19.6 C 6.4 km/h
148 18-06-2020 12:15:00 19.6 C 12.32 g/m*3 19.6 C 8.1 km/h
149 18-06-2020 12:20:00 19.7 C 12.23 g/m*3 19.7 C 6.4 km/h
150 18-06-2020 12:25:00 19.9 C 12.54 g/m*3 19.9 C 14.5 km/h
Sensor: Nr:Datum:Temp:Abs-Feuchte:Windchill:Wind:
Aussen-T/F 151 18-06-2020 12:30:00 19.9 C 12.37 g/m*3 19.9 C 9.7 km/h
152 18-06-2020 12:35:00 20 C 12.44 g/m*3 20 C 14.5 km/h
153 18-06-2020 12:40:00 19.9 C 12.2 g/m*3 19.9 C 16.1 km/h
154 18-06-2020 12:45:00 19.6 C 11.99 g/m*3 19.6 C 9.7 km/h
155 18-06-2020 12:50:00 19.7 C 12.23 g/m*3 19.7 C 9.7 km/h
156 18-06-2020 12:55:00 20 C 12.1 g/m*3 20 C 8.1 km/h
157 18-06-2020 13:00:00 20.2 C 12.06 g/m*3 20.2 C 9.7 km/h
158 18-06-2020 13:05:00 20.3 C 12.14 g/m*3 20.3 C 12.9 km/h
159 18-06-2020 13:10:00 20.3 C 12.14 g/m*3 20.3 C 12.9 km/h
160 18-06-2020 13:15:00 20.5 C 12.46 g/m*3 20.5 C 12.9 km/h
161 18-06-2020 13:20:00 20.5 C 11.74 g/m*3 20.5 C 14.5 km/h
162 18-06-2020 13:25:00 20.6 C 12.17 g/m*3 20.6 C 9.7 km/h
163 18-06-2020 13:30:00 20.8 C 11.77 g/m*3 20.8 C 11.3 km/h
164 18-06-2020 13:35:00 21.1 C 11.98 g/m*3 21.1 C 11.3 km/h
165 18-06-2020 13:40:00 21.2 C 11.86 g/m*3 21.2 C 17.7 km/h
166 18-06-2020 13:45:00 21.3 C 12.12 g/m*3 21.3 C 14.5 km/h
167 18-06-2020 13:50:00 21.3 C 11.74 g/m*3 21.3 C 11.3 km/h
168 18-06-2020 13:55:00 21.4 C 11.62 g/m*3 21.4 C 16.1 km/h
169 18-06-2020 14:00:00 21.6 C 11.95 g/m*3 21.6 C 14.5 km/h
170 18-06-2020 14:05:00 21.7 C 12.02 g/m*3 21.7 C 9.7 km/h
171 18-06-2020 14:10:00 21.9 C 11.96 g/m*3 21.9 C 11.3 km/h
172 18-06-2020 14:15:00 22.1 C 11.91 g/m*3 22.1 C 12.9 km/h
173 18-06-2020 14:20:00 22.2 C 11.78 g/m*3 22.2 C 11.3 km/h
174 18-06-2020 14:25:00 22.3 C 11.26 g/m*3 22.3 C 11.3 km/h
175 18-06-2020 14:30:00 22.4 C 11.52 g/m*3 22.4 C 11.3 km/h
Sensor: Nr:Datum:Temp:Abs-Feuchte:Windchill:Wind:
Aussen-T/F 176 18-06-2020 14:35:00 22.4 C 12.11 g/m*3 22.4 C 8.1 km/h
177 18-06-2020 14:40:00 22.4 C 12.51 g/m*3 22.4 C 8.1 km/h
178 18-06-2020 14:45:00 22.6 C 12.25 g/m*3 22.6 C 12.9 km/h
179 18-06-2020 14:50:00 22.4 C 12.51 g/m*3 22.4 C 9.7 km/h
180 18-06-2020 14:55:00 22.4 C 12.71 g/m*3 22.4 C 11.3 km/h
181 18-06-2020 15:00:00 22.8 C 12.4 g/m*3 22.8 C 11.3 km/h
182 18-06-2020 15:05:00 23.1 C 12.4 g/m*3 23.1 C 11.3 km/h
183 18-06-2020 15:10:00 23.2 C 11.64 g/m*3 23.2 C 11.3 km/h
184 18-06-2020 15:15:00 22.8 C 11.58 g/m*3 22.8 C 11.3 km/h
185 18-06-2020 15:20:00 22.9 C 11.65 g/m*3 22.9 C 6.4 km/h
186 18-06-2020 15:25:00 23.2 C 11.85 g/m*3 23.2 C 11.3 km/h
187 18-06-2020 15:30:00 23.3 C 11.92 g/m*3 23.3 C 6.4 km/h
188 18-06-2020 15:35:00 23.6 C 11.27 g/m*3 23.6 C 8.1 km/h
189 18-06-2020 15:40:00 24.1 C 11.38 g/m*3 24.1 C 12.9 km/h
190 18-06-2020 15:45:00 24.3 C 11.06 g/m*3 24.3 C 9.7 km/h
191 18-06-2020 15:50:00 24.4 C 11.13 g/m*3 24.4 C 12.9 km/h
192 18-06-2020 15:55:00 24.8 C 11.61 g/m*3 24.8 C 11.3 km/h
193 18-06-2020 16:00:00 25.2 C 10.48 g/m*3 25.2 C 12.9 km/h
194 18-06-2020 16:05:00 25.3 C 10.77 g/m*3 25.3 C 12.9 km/h
195 18-06-2020 16:10:00 25.1 C 11.57 g/m*3 25.1 C 11.3 km/h
196 18-06-2020 16:15:00 25.2 C 11.41 g/m*3 25.2 C 9.7 km/h
197 18-06-2020 16:20:00 25.3 C 11.47 g/m*3 25.3 C 8.1 km/h
198 18-06-2020 16:25:00 25.4 C 11.54 g/m*3 25.4 C 9.7 km/h
199 18-06-2020 16:30:00 25.2 C 11.64 g/m*3 25.2 C 14.5 km/h
200 18-06-2020 16:35:00 24.9 C 11.67 g/m*3 24.9 C 14.5 km/h
Sensor: Nr:Datum:Temp:Abs-Feuchte:Windchill:Wind:
Aussen-T/F 201 18-06-2020 16:40:00 24.8 C 12.29 g/m*3 24.8 C 9.7 km/h
202 18-06-2020 16:45:00 24.9 C 11.67 g/m*3 24.9 C 12.9 km/h
203 18-06-2020 16:50:00 24.9 C 11.67 g/m*3 24.9 C 11.3 km/h
204 18-06-2020 16:55:00 24.9 C 11.67 g/m*3 24.9 C 11.3 km/h
205 18-06-2020 17:00:00 25 C 11.51 g/m*3 25 C 16.1 km/h
206 18-06-2020 17:05:00 25.2 C 11.87 g/m*3 25.2 C 17.7 km/h
207 18-06-2020 17:10:00 25.3 C 11.71 g/m*3 25.3 C 11.3 km/h
208 18-06-2020 17:15:00 25.4 C 11.54 g/m*3 25.4 C 16.1 km/h
209 18-06-2020 17:20:00 25.3 C 11.24 g/m*3 25.3 C 14.5 km/h
210 18-06-2020 17:25:00 25.2 C 11.41 g/m*3 25.2 C 16.1 km/h
211 18-06-2020 17:30:00 25.1 C 11.57 g/m*3 25.1 C 16.1 km/h
212 18-06-2020 17:35:00 25.1 C 11.57 g/m*3 25.1 C 22.5 km/h
213 18-06-2020 17:40:00 25.1 C 10.88 g/m*3 25.1 C 19.3 km/h
214 18-06-2020 17:45:00 24.4 C 10.9 g/m*3 24.4 C 19.3 km/h
215 18-06-2020 17:50:00 23.8 C 10.76 g/m*3 23.8 C 11.3 km/h
216 18-06-2020 17:55:00 23.6 C 10.42 g/m*3 23.6 C 9.7 km/h
217 18-06-2020 18:00:00 23.7 C 10.48 g/m*3 23.7 C 14.5 km/h
218 18-06-2020 18:05:00 23.9 C 10.6 g/m*3 23.9 C 19.3 km/h
219 18-06-2020 18:10:00 23.7 C 10.69 g/m*3 23.7 C 11.3 km/h
220 18-06-2020 18:15:00 23.4 C 10.51 g/m*3 23.4 C 16.1 km/h
221 18-06-2020 18:20:00 23.9 C 11.03 g/m*3 23.9 C 11.3 km/h
222 18-06-2020 18:25:00 24.5 C 10.74 g/m*3 24.5 C 19.3 km/h
223 18-06-2020 18:30:00 24.1 C 10.28 g/m*3 24.1 C 17.7 km/h
224 18-06-2020 18:35:00 23.7 C 11.12 g/m*3 23.7 C 11.3 km/h
225 18-06-2020 18:40:00 23.5 C 10.79 g/m*3 23.5 C 17.7 km/h
Sensor: Nr:Datum:Temp:Abs-Feuchte:Windchill:Wind:
Aussen-T/F 226 18-06-2020 18:45:00 23.7 C 11.34 g/m*3 23.7 C 16.1 km/h
227 18-06-2020 18:50:00 23.9 C 11.25 g/m*3 23.9 C 12.9 km/h
228 18-06-2020 18:55:00 24.4 C 11.79 g/m*3 24.4 C 12.9 km/h
229 18-06-2020 19:00:00 24.8 C 11.38 g/m*3 24.8 C 12.9 km/h
230 18-06-2020 19:05:00 24.6 C 11.48 g/m*3 24.6 C 11.3 km/h
231 18-06-2020 19:10:00 24.1 C 11.16 g/m*3 24.1 C 12.9 km/h
232 18-06-2020 19:15:00 23.6 C 11.27 g/m*3 23.6 C 8.1 km/h
233 18-06-2020 19:20:00 23.4 C 11.78 g/m*3 23.4 C 9.7 km/h
234 18-06-2020 19:25:00 23.7 C 11.55 g/m*3 23.7 C 9.7 km/h
235 18-06-2020 19:30:00 23.6 C 11.48 g/m*3 23.6 C 11.3 km/h
236 18-06-2020 19:35:00 23.6 C 11.7 g/m*3 23.6 C 11.3 km/h
237 18-06-2020 19:40:00 23.8 C 11.62 g/m*3 23.8 C 11.3 km/h
238 18-06-2020 19:45:00 23.9 C 11.68 g/m*3 23.9 C 9.7 km/h
239 18-06-2020 19:50:00 23.8 C 11.62 g/m*3 23.8 C 9.7 km/h
240 18-06-2020 19:55:00 23.8 C 11.83 g/m*3 23.8 C 11.3 km/h
241 18-06-2020 20:00:00 23.8 C 11.19 g/m*3 23.8 C 14.5 km/h
242 18-06-2020 20:05:00 23.7 C 11.12 g/m*3 23.7 C 11.3 km/h
243 18-06-2020 20:10:00 23.6 C 11.27 g/m*3 23.6 C 11.3 km/h
244 18-06-2020 20:15:00 23.4 C 11.14 g/m*3 23.4 C 9.7 km/h
245 18-06-2020 20:20:00 23.3 C 11.5 g/m*3 23.3 C 11.3 km/h
246 18-06-2020 20:25:00 23.3 C 11.5 g/m*3 23.3 C 11.3 km/h
247 18-06-2020 20:30:00 23.2 C 11.23 g/m*3 23.2 C 6.4 km/h
248 18-06-2020 20:35:00 23 C 11.3 g/m*3 23 C 8.1 km/h
249 18-06-2020 20:40:00 22.9 C 11.44 g/m*3 22.9 C 11.3 km/h
250 18-06-2020 20:45:00 22.8 C 11.38 g/m*3 22.8 C 8.1 km/h
Sensor: Nr:Datum:Temp:Abs-Feuchte:Windchill:Wind:
Aussen-T/F 251 18-06-2020 20:50:00 22.8 C 11.58 g/m*3 22.8 C 9.7 km/h
252 18-06-2020 20:55:00 22.6 C 11.65 g/m*3 22.6 C 6.4 km/h
253 18-06-2020 21:00:00 22.3 C 11.65 g/m*3 22.3 C 9.7 km/h
254 18-06-2020 21:05:00 22.1 C 12.1 g/m*3 22.1 C 0 km/h
255 18-06-2020 21:10:00 21.9 C 12.93 g/m*3 21.9 C 0 km/h
256 18-06-2020 21:15:00 21.7 C 12.97 g/m*3 21.7 C 0 km/h
257 18-06-2020 21:20:00 21.4 C 12.94 g/m*3 21.4 C 0 km/h
258 18-06-2020 21:25:00 21 C 12.82 g/m*3 21 C 6.4 km/h
259 18-06-2020 21:30:00 20.6 C 12.53 g/m*3 20.6 C 6.4 km/h
260 18-06-2020 21:35:00 20.1 C 12.52 g/m*3 20.1 C 0 km/h
261 18-06-2020 21:40:00 19.7 C 12.4 g/m*3 19.7 C 6.4 km/h
262 18-06-2020 21:45:00 19.3 C 12.27 g/m*3 19.3 C 4.8 km/h
263 18-06-2020 21:50:00 18.9 C 11.99 g/m*3 18.9 C 6.4 km/h
264 18-06-2020 21:55:00 18.6 C 12.1 g/m*3 18.6 C 6.4 km/h
265 18-06-2020 22:00:00 18.3 C 12.04 g/m*3 18.3 C 4.8 km/h
266 18-06-2020 22:05:00 18.1 C 11.9 g/m*3 18.1 C 4.8 km/h
267 18-06-2020 22:10:00 17.8 C 11.84 g/m*3 17.8 C 6.4 km/h
268 18-06-2020 22:15:00 17.6 C 11.85 g/m*3 17.6 C 6.4 km/h
269 18-06-2020 22:20:00 17.3 C 11.79 g/m*3 17.3 C 6.4 km/h
270 18-06-2020 22:25:00 17.2 C 11.72 g/m*3 17.2 C 4.8 km/h
271 18-06-2020 22:30:00 17 C 11.72 g/m*3 17 C 4.8 km/h
272 18-06-2020 22:35:00 16.9 C 11.79 g/m*3 16.9 C 4.8 km/h
273 18-06-2020 22:40:00 16.7 C 11.65 g/m*3 16.7 C 4.8 km/h
274 18-06-2020 22:45:00 16.7 C 11.8 g/m*3 16.7 C 4.8 km/h
275 18-06-2020 22:50:00 16.5 C 11.65 g/m*3 16.5 C 4.8 km/h
Sensor: Nr:Datum:Temp:Abs-Feuchte:Windchill:Wind:
Aussen-T/F 276 18-06-2020 22:55:00 16.4 C 11.72 g/m*3 16.4 C 3.2 km/h
277 18-06-2020 23:00:00 16.3 C 11.65 g/m*3 16.3 C 0 km/h
278 18-06-2020 23:05:00 16.2 C 11.72 g/m*3 16.2 C 0 km/h
279 18-06-2020 23:10:00 16.1 C 11.65 g/m*3 16.1 C 1.6 km/h
280 18-06-2020 23:15:00 15.9 C 11.65 g/m*3 15.9 C 0 km/h
281 18-06-2020 23:20:00 15.8 C 11.58 g/m*3 15.8 C 0 km/h
282 18-06-2020 23:25:00 15.8 C 11.58 g/m*3 15.8 C 0 km/h
283 18-06-2020 23:30:00 15.7 C 11.51 g/m*3 15.7 C 0 km/h
284 18-06-2020 23:35:00 15.6 C 11.57 g/m*3 15.6 C 0 km/h
285 18-06-2020 23:40:00 15.5 C 11.5 g/m*3 15.5 C 3.2 km/h
286 18-06-2020 23:45:00 15.4 C 11.43 g/m*3 15.4 C 1.6 km/h
287 18-06-2020 23:50:00 15.3 C 11.36 g/m*3 15.3 C 0 km/h
288 18-06-2020 23:55:00 15.2 C 11.42 g/m*3 15.2 C 4.8 km/h
289 19-06-2020 00:00:00 15.2 C 11.42 g/m*3 15.2 C 0 km/h
290 19-06-2020 00:05:00 15.2 C 11.42 g/m*3 15.2 C 1.6 km/h
291 19-06-2020 00:10:00 15.2 C 11.42 g/m*3 15.2 C 1.6 km/h
292 19-06-2020 00:15:00 15.1 C 11.35 g/m*3 15.1 C 1.6 km/h
293 19-06-2020 00:20:00 15.1 C 11.35 g/m*3 15.1 C 0 km/h
294 19-06-2020 00:25:00 15 C 11.28 g/m*3 15 C 0 km/h
295 19-06-2020 00:30:00 15.1 C 11.48 g/m*3 15.1 C 4.8 km/h
296 19-06-2020 00:35:00 15.2 C 11.55 g/m*3 15.2 C 3.2 km/h
297 19-06-2020 00:40:00 15.3 C 11.62 g/m*3 15.3 C 8.1 km/h
298 19-06-2020 00:45:00 15.4 C 11.69 g/m*3 15.4 C 1.6 km/h
299 19-06-2020 00:50:00 15.4 C 11.69 g/m*3 15.4 C 0 km/h
300 19-06-2020 00:55:00 15.4 C 11.69 g/m*3 15.4 C 0 km/h
Sensor: Nr:Datum:Temp:Abs-Feuchte:Windchill:Wind:
Aussen-T/F 301 19-06-2020 01:00:00 15.4 C 11.56 g/m*3 15.4 C 1.6 km/h
302 19-06-2020 01:05:00 15.3 C 11.49 g/m*3 15.3 C 0 km/h
303 19-06-2020 01:10:00 15.2 C 11.42 g/m*3 15.2 C 0 km/h
304 19-06-2020 01:15:00 15.1 C 11.35 g/m*3 15.1 C 0 km/h
305 19-06-2020 01:20:00 14.8 C 11.15 g/m*3 14.8 C 0 km/h
306 19-06-2020 01:25:00 14.7 C 11.08 g/m*3 14.7 C 0 km/h
307 19-06-2020 01:30:00 14.5 C 11.07 g/m*3 14.5 C 0 km/h
308 19-06-2020 01:35:00 14.4 C 11 g/m*3 14.4 C 0 km/h
309 19-06-2020 01:40:00 14.3 C 11.06 g/m*3 14.3 C 0 km/h
310 19-06-2020 01:45:00 14.2 C 10.99 g/m*3 14.2 C 0 km/h
311 19-06-2020 01:50:00 14.2 C 10.99 g/m*3 14.2 C 0 km/h
312 19-06-2020 01:55:00 14.1 C 10.92 g/m*3 14.1 C 1.6 km/h
313 19-06-2020 02:00:00 14 C 10.98 g/m*3 14 C 0 km/h
314 19-06-2020 02:05:00 13.9 C 10.91 g/m*3 13.9 C 0 km/h
315 19-06-2020 02:10:00 13.8 C 10.84 g/m*3 13.8 C 0 km/h
316 19-06-2020 02:15:00 13.7 C 10.78 g/m*3 13.7 C 0 km/h
317 19-06-2020 02:20:00 13.6 C 10.71 g/m*3 13.6 C 0 km/h
318 19-06-2020 02:25:00 13.5 C 10.64 g/m*3 13.5 C 0 km/h
319 19-06-2020 02:30:00 13.4 C 10.69 g/m*3 13.4 C 0 km/h
320 19-06-2020 02:35:00 13.3 C 10.63 g/m*3 13.3 C 0 km/h
321 19-06-2020 02:40:00 13.3 C 10.63 g/m*3 13.3 C 1.6 km/h
322 19-06-2020 02:45:00 13.3 C 10.63 g/m*3 13.3 C 1.6 km/h
323 19-06-2020 02:50:00 13.3 C 10.63 g/m*3 13.3 C 3.2 km/h
324 19-06-2020 02:55:00 13.2 C 10.68 g/m*3 13.2 C 0 km/h
325 19-06-2020 03:00:00 13.2 C 10.68 g/m*3 13.2 C 1.6 km/h
Sensor: Nr:Datum:Temp:Abs-Feuchte:Windchill:Wind:
Aussen-T/F 326 19-06-2020 03:05:00 13.2 C 10.68 g/m*3 13.2 C 3.2 km/h
327 19-06-2020 03:10:00 13.1 C 10.61 g/m*3 13.1 C 0 km/h
328 19-06-2020 03:15:00 13.1 C 10.61 g/m*3 13.1 C 0 km/h
329 19-06-2020 03:20:00 13 C 10.55 g/m*3 13 C 0 km/h
330 19-06-2020 03:25:00 12.9 C 10.48 g/m*3 12.9 C 0 km/h
331 19-06-2020 03:30:00 12.8 C 10.42 g/m*3 12.8 C 0 km/h
332 19-06-2020 03:35:00 12.7 C 10.35 g/m*3 12.7 C 0 km/h
333 19-06-2020 03:40:00 12.7 C 10.35 g/m*3 12.7 C 0 km/h
334 19-06-2020 03:45:00 12.6 C 10.29 g/m*3 12.6 C 0 km/h
335 19-06-2020 03:50:00 12.6 C 10.29 g/m*3 12.6 C 0 km/h
336 19-06-2020 03:55:00 12.6 C 10.29 g/m*3 12.6 C 0 km/h
337 19-06-2020 04:00:00 12.4 C 10.16 g/m*3 12.4 C 0 km/h
338 19-06-2020 04:05:00 12.4 C 10.27 g/m*3 12.4 C 1.6 km/h
339 19-06-2020 04:10:00 12.5 C 10.33 g/m*3 12.5 C 1.6 km/h
340 19-06-2020 04:15:00 12.5 C 10.33 g/m*3 12.5 C 1.6 km/h
341 19-06-2020 04:20:00 12.4 C 10.27 g/m*3 12.4 C 1.6 km/h
342 19-06-2020 04:25:00 12.4 C 10.27 g/m*3 12.4 C 0 km/h
343 19-06-2020 04:30:00 12.3 C 10.21 g/m*3 12.3 C 0 km/h
344 19-06-2020 04:35:00 12.3 C 10.21 g/m*3 12.3 C 1.6 km/h
345 19-06-2020 04:40:00 12.2 C 10.14 g/m*3 12.2 C 0 km/h
346 19-06-2020 04:45:00 12.2 C 10.14 g/m*3 12.2 C 3.2 km/h
347 19-06-2020 04:50:00 12.2 C 10.14 g/m*3 12.2 C 3.2 km/h
348 19-06-2020 04:55:00 12.2 C 10.14 g/m*3 12.2 C 1.6 km/h
349 19-06-2020 05:00:00 12.2 C 10.14 g/m*3 12.2 C 0 km/h
350 19-06-2020 05:05:00 12.2 C 10.25 g/m*3 12.2 C 3.2 km/h
Sensor: Nr:Datum:Temp:Abs-Feuchte:Windchill:Wind:
Aussen-T/F 351 19-06-2020 05:10:00 12.4 C 10.38 g/m*3 12.4 C 6.4 km/h
352 19-06-2020 05:15:00 12.4 C 10.38 g/m*3 12.4 C 0 km/h
353 19-06-2020 05:20:00 12.3 C 10.21 g/m*3 12.3 C 1.6 km/h
354 19-06-2020 05:25:00 12.2 C 10.14 g/m*3 12.2 C 0 km/h
355 19-06-2020 05:30:00 12.2 C 10.14 g/m*3 12.2 C 0 km/h
356 19-06-2020 05:35:00 12.1 C 10.19 g/m*3 12.1 C 0 km/h
357 19-06-2020 05:40:00 12.1 C 10.19 g/m*3 12.1 C 0 km/h
358 19-06-2020 05:45:00 12.2 C 10.25 g/m*3 12.2 C 0 km/h
359 19-06-2020 05:50:00 12.2 C 10.25 g/m*3 12.2 C 0 km/h
360 19-06-2020 05:55:00 12.2 C 10.25 g/m*3 12.2 C 1.6 km/h
361 19-06-2020 06:00:00 12.3 C 10.32 g/m*3 12.3 C 0 km/h
362 19-06-2020 06:05:00 12.3 C 10.32 g/m*3 12.3 C 0 km/h
363 19-06-2020 06:10:00 12.4 C 10.38 g/m*3 12.4 C 0 km/h
364 19-06-2020 06:15:00 12.4 C 10.38 g/m*3 12.4 C 0 km/h
365 19-06-2020 06:20:00 12.4 C 10.38 g/m*3 12.4 C 0 km/h
366 19-06-2020 06:25:00 12.5 C 10.44 g/m*3 12.5 C 0 km/h
367 19-06-2020 06:30:00 12.6 C 10.51 g/m*3 12.6 C 0 km/h
368 19-06-2020 06:35:00 12.7 C 10.58 g/m*3 12.7 C 3.2 km/h
369 19-06-2020 06:40:00 12.7 C 10.58 g/m*3 12.7 C 1.6 km/h
370 19-06-2020 06:45:00 12.8 C 10.64 g/m*3 12.8 C 0 km/h
371 19-06-2020 06:50:00 12.9 C 10.71 g/m*3 12.9 C 3.2 km/h
372 19-06-2020 06:55:00 12.9 C 10.71 g/m*3 12.9 C 0 km/h
373 19-06-2020 07:00:00 13 C 10.77 g/m*3 13 C 3.2 km/h
374 19-06-2020 07:05:00 13.1 C 10.84 g/m*3 13.1 C 1.6 km/h
375 19-06-2020 07:10:00 13.2 C 10.91 g/m*3 13.2 C 0 km/h
Sensor: Nr:Datum:Temp:Abs-Feuchte:Windchill:Wind:
Aussen-T/F 376 19-06-2020 07:15:00 13.3 C 10.98 g/m*3 13.3 C 0 km/h
377 19-06-2020 07:20:00 13.4 C 11.04 g/m*3 13.4 C 0 km/h
378 19-06-2020 07:25:00 13.5 C 11.11 g/m*3 13.5 C 0 km/h
379 19-06-2020 07:30:00 13.6 C 11.18 g/m*3 13.6 C 0 km/h
380 19-06-2020 07:35:00 13.8 C 11.32 g/m*3 13.8 C 0 km/h
381 19-06-2020 07:40:00 13.9 C 11.39 g/m*3 13.9 C 0 km/h
382 19-06-2020 07:45:00 14.1 C 11.53 g/m*3 14.1 C 0 km/h
383 19-06-2020 07:50:00 14.3 C 11.67 g/m*3 14.3 C 1.6 km/h
384 19-06-2020 07:55:00 14.5 C 11.82 g/m*3 14.5 C 0 km/h
385 19-06-2020 08:00:00 14.6 C 11.76 g/m*3 14.6 C 0 km/h
386 19-06-2020 08:05:00 14.8 C 11.91 g/m*3 14.8 C 1.6 km/h
387 19-06-2020 08:10:00 14.9 C 11.85 g/m*3 14.9 C 9.7 km/h
388 19-06-2020 08:15:00 15.2 C 11.81 g/m*3 15.2 C 9.7 km/h
389 19-06-2020 08:20:00 15.4 C 11.82 g/m*3 15.4 C 6.4 km/h
390 19-06-2020 08:25:00 15.6 C 11.7 g/m*3 15.6 C 9.7 km/h
391 19-06-2020 08:30:00 15.9 C 11.78 g/m*3 15.9 C 11.3 km/h
392 19-06-2020 08:35:00 16.1 C 11.79 g/m*3 16.1 C 8.1 km/h
393 19-06-2020 08:40:00 16.3 C 11.79 g/m*3 16.3 C 9.7 km/h
394 19-06-2020 08:45:00 16.6 C 11.87 g/m*3 16.6 C 12.9 km/h
395 19-06-2020 08:50:00 16.7 C 11.8 g/m*3 16.7 C 11.3 km/h
396 19-06-2020 08:55:00 16.9 C 11.94 g/m*3 16.9 C 11.3 km/h
397 19-06-2020 09:00:00 17.1 C 11.94 g/m*3 17.1 C 11.3 km/h
398 19-06-2020 09:05:00 17.2 C 11.86 g/m*3 17.2 C 11.3 km/h
399 19-06-2020 09:10:00 17.3 C 11.79 g/m*3 17.3 C 8.1 km/h
400 19-06-2020 09:15:00 17.3 C 11.79 g/m*3 17.3 C 9.7 km/h
Sensor: Nr:Datum:Temp:Abs-Feuchte:Windchill:Wind:
Aussen-T/F 401 19-06-2020 09:20:00 17.3 C 11.79 g/m*3 17.3 C 6.4 km/h
402 19-06-2020 09:25:00 17.4 C 11.86 g/m*3 17.4 C 12.9 km/h
403 19-06-2020 09:30:00 17.5 C 11.78 g/m*3 17.5 C 11.3 km/h
404 19-06-2020 09:35:00 17.6 C 11.85 g/m*3 17.6 C 11.3 km/h
405 19-06-2020 09:40:00 17.8 C 11.99 g/m*3 17.8 C 11.3 km/h
406 19-06-2020 09:45:00 17.9 C 12.06 g/m*3 17.9 C 4.8 km/h
407 19-06-2020 09:50:00 18 C 12.13 g/m*3 18 C 9.7 km/h
408 19-06-2020 09:55:00 18.2 C 12.12 g/m*3 18.2 C 9.7 km/h
409 19-06-2020 10:00:00 18.3 C 12.2 g/m*3 18.3 C 8.1 km/h
410 19-06-2020 10:05:00 18.3 C 12.2 g/m*3 18.3 C 8.1 km/h
411 19-06-2020 10:10:00 18.4 C 12.11 g/m*3 18.4 C 6.4 km/h
412 19-06-2020 10:15:00 18.6 C 12.41 g/m*3 18.6 C 6.4 km/h
413 19-06-2020 10:20:00 18.8 C 12.4 g/m*3 18.8 C 6.4 km/h
414 19-06-2020 10:25:00 19.1 C 12.46 g/m*3 19.1 C 3.2 km/h
415 19-06-2020 10:30:00 19.4 C 12.51 g/m*3 19.4 C 3.2 km/h
416 19-06-2020 10:35:00 19.5 C 12.42 g/m*3 19.5 C 6.4 km/h
417 19-06-2020 10:40:00 19.7 C 12.4 g/m*3 19.7 C 6.4 km/h
418 19-06-2020 10:45:00 19.8 C 12.3 g/m*3 19.8 C 6.4 km/h
419 19-06-2020 10:50:00 19.9 C 12.37 g/m*3 19.9 C 3.2 km/h
420 19-06-2020 10:55:00 20.1 C 12.34 g/m*3 20.1 C 4.8 km/h
421 19-06-2020 11:00:00 20.2 C 12.41 g/m*3 20.2 C 6.4 km/h
422 19-06-2020 11:05:00 20.4 C 12.56 g/m*3 20.4 C 4.8 km/h
423 19-06-2020 11:10:00 20.6 C 12.17 g/m*3 20.6 C 9.7 km/h
424 19-06-2020 11:15:00 20.7 C 12.24 g/m*3 20.7 C 8.1 km/h
425 19-06-2020 11:20:00 20.8 C 12.13 g/m*3 20.8 C 11.3 km/h
Sensor: Nr:Datum:Temp:Abs-Feuchte:Windchill:Wind:
Aussen-T/F 426 19-06-2020 11:25:00 20.9 C 11.84 g/m*3 20.9 C 11.3 km/h
427 19-06-2020 11:30:00 20.9 C 12.02 g/m*3 20.9 C 9.7 km/h
428 19-06-2020 11:35:00 21 C 12.09 g/m*3 21 C 11.3 km/h
429 19-06-2020 11:40:00 21.1 C 12.53 g/m*3 21.1 C 11.3 km/h
430 19-06-2020 11:45:00 21.1 C 11.98 g/m*3 21.1 C 6.4 km/h
431 19-06-2020 11:50:00 21.2 C 11.68 g/m*3 21.2 C 14.5 km/h
432 19-06-2020 11:55:00 21.3 C 11.74 g/m*3 21.3 C 14.5 km/h
433 19-06-2020 12:00:00 21.4 C 12 g/m*3 21.4 C 9.7 km/h
434 19-06-2020 12:05:00 21.6 C 11.76 g/m*3 21.6 C 11.3 km/h
435 19-06-2020 12:10:00 21.7 C 11.83 g/m*3 21.7 C 14.5 km/h
436 19-06-2020 12:15:00 21.8 C 11.7 g/m*3 21.8 C 11.3 km/h
437 19-06-2020 12:20:00 21.9 C 12.16 g/m*3 21.9 C 17.7 km/h
438 19-06-2020 12:25:00 22.1 C 11.91 g/m*3 22.1 C 17.7 km/h
439 19-06-2020 12:30:00 22.1 C 11.71 g/m*3 22.1 C 12.9 km/h
440 19-06-2020 12:35:00 22.2 C 11.98 g/m*3 22.2 C 9.7 km/h
441 19-06-2020 12:40:00 22.2 C 11.98 g/m*3 22.2 C 11.3 km/h
442 19-06-2020 12:45:00 22.1 C 11.91 g/m*3 22.1 C 9.7 km/h
443 19-06-2020 12:50:00 22 C 12.23 g/m*3 22 C 9.7 km/h
444 19-06-2020 12:55:00 21.8 C 12.09 g/m*3 21.8 C 8.1 km/h
445 19-06-2020 13:00:00 21.6 C 11.95 g/m*3 21.6 C 9.7 km/h
446 19-06-2020 13:05:00 21.4 C 12.19 g/m*3 21.4 C 9.7 km/h
447 19-06-2020 13:10:00 21.3 C 12.3 g/m*3 21.3 C 6.4 km/h
448 19-06-2020 13:15:00 21.2 C 12.05 g/m*3 21.2 C 4.8 km/h
449 19-06-2020 13:20:00 21.2 C 12.42 g/m*3 21.2 C 0 km/h
450 19-06-2020 13:25:00 21.3 C 12.12 g/m*3 21.3 C 8.1 km/h
Sensor: Nr:Datum:Temp:Abs-Feuchte:Windchill:Wind:
Aussen-T/F 451 19-06-2020 13:30:00 21.4 C 12.19 g/m*3 21.4 C 8.1 km/h
452 19-06-2020 13:35:00 21.6 C 11.95 g/m*3 21.6 C 11.3 km/h
453 19-06-2020 13:40:00 21.7 C 12.21 g/m*3 21.7 C 6.4 km/h
454 19-06-2020 13:45:00 21.8 C 12.28 g/m*3 21.8 C 6.4 km/h
455 19-06-2020 13:50:00 21.8 C 12.09 g/m*3 21.8 C 4.8 km/h
456 19-06-2020 13:55:00 21.8 C 11.9 g/m*3 21.8 C 0 km/h
457 19-06-2020 14:00:00 22.1 C 12.49 g/m*3 22.1 C 0 km/h
458 19-06-2020 14:05:00 22.4 C 12.11 g/m*3 22.4 C 6.4 km/h
459 19-06-2020 14:10:00 22.5 C 12.18 g/m*3 22.5 C 4.8 km/h
460 19-06-2020 14:15:00 22.4 C 12.11 g/m*3 22.4 C 6.4 km/h
461 19-06-2020 14:20:00 22.3 C 11.85 g/m*3 22.3 C 0 km/h
462 19-06-2020 14:25:00 22.3 C 11.85 g/m*3 22.3 C 4.8 km/h
463 19-06-2020 14:30:00 22.4 C 11.32 g/m*3 22.4 C 16.1 km/h
464 19-06-2020 14:35:00 22.4 C 11.32 g/m*3 22.4 C 16.1 km/h
465 19-06-2020 14:40:00 22.3 C 11.26 g/m*3 22.3 C 16.1 km/h
466 19-06-2020 14:45:00 22.2 C 10.8 g/m*3 22.2 C 11.3 km/h
467 19-06-2020 14:50:00 22.3 C 11.06 g/m*3 22.3 C 8.1 km/h
468 19-06-2020 14:55:00 22.5 C 10.59 g/m*3 22.5 C 14.5 km/h
469 19-06-2020 15:00:00 22.6 C 10.85 g/m*3 22.6 C 11.3 km/h
470 19-06-2020 15:05:00 22.8 C 11.58 g/m*3 22.8 C 3.2 km/h
471 19-06-2020 15:10:00 22.9 C 11.04 g/m*3 22.9 C 14.5 km/h
472 19-06-2020 15:15:00 23.3 C 11.5 g/m*3 23.3 C 16.1 km/h
473 19-06-2020 15:20:00 23.4 C 11.14 g/m*3 23.4 C 11.3 km/h
474 19-06-2020 15:25:00 23.4 C 11.14 g/m*3 23.4 C 9.7 km/h
475 19-06-2020 15:30:00 23.3 C 11.08 g/m*3 23.3 C 8.1 km/h
Sensor: Nr:Datum:Temp:Abs-Feuchte:Windchill:Wind:
Aussen-T/F 476 19-06-2020 15:35:00 23.1 C 10.96 g/m*3 23.1 C 14.5 km/h
477 19-06-2020 15:40:00 22.4 C 11.12 g/m*3 22.4 C 19.3 km/h
478 19-06-2020 15:45:00 21.3 C 11.74 g/m*3 21.3 C 27.4 km/h
479 19-06-2020 15:50:00 19.8 C 11.96 g/m*3 19.8 C 22.5 km/h
480 19-06-2020 15:55:00 18.9 C 12.31 g/m*3 18.9 C 9.7 km/h
481 19-06-2020 16:00:00 18.3 C 12.66 g/m*3 18.3 C 6.4 km/h
482 19-06-2020 16:05:00 17.8 C 12.6 g/m*3 17.8 C 3.2 km/h
483 19-06-2020 16:10:00 17.4 C 12.75 g/m*3 17.4 C 6.4 km/h
484 19-06-2020 16:15:00 17.1 C 12.81 g/m*3 17.1 C 9.7 km/h
485 19-06-2020 16:20:00 16.8 C 12.58 g/m*3 16.8 C 11.3 km/h
486 19-06-2020 16:25:00 16.3 C 12.35 g/m*3 16.3 C 12.9 km/h
487 19-06-2020 16:30:00 16.2 C 12.41 g/m*3 16.2 C 8.1 km/h
488 19-06-2020 16:35:00 15.9 C 12.19 g/m*3 15.9 C 12.9 km/h
489 19-06-2020 16:40:00 15.7 C 12.18 g/m*3 15.7 C 12.9 km/h
490 19-06-2020 16:45:00 15.4 C 12.09 g/m*3 15.4 C 12.9 km/h
491 19-06-2020 16:50:00 15.4 C 12.22 g/m*3 15.4 C 6.4 km/h
492 19-06-2020 16:55:00 15.5 C 12.29 g/m*3 15.5 C 9.7 km/h
493 19-06-2020 17:00:00 15.7 C 12.58 g/m*3 15.7 C 12.9 km/h
494 19-06-2020 17:05:00 15.7 C 12.58 g/m*3 15.7 C 11.3 km/h
495 19-06-2020 17:10:00 15.8 C 12.65 g/m*3 15.8 C 16.1 km/h
496 19-06-2020 17:15:00 15.8 C 12.65 g/m*3 15.8 C 12.9 km/h
497 19-06-2020 17:20:00 15.8 C 12.65 g/m*3 15.8 C 12.9 km/h
498 19-06-2020 17:25:00 15.8 C 12.65 g/m*3 15.8 C 16.1 km/h
499 19-06-2020 17:30:00 15.9 C 12.87 g/m*3 15.9 C 16.1 km/h
500 19-06-2020 17:35:00 16.1 C 13.02 g/m*3 16.1 C 8.1 km/h
Sensor: Nr:Datum:Temp:Abs-Feuchte:Windchill:Wind:
Aussen-T/F 501 19-06-2020 17:40:00 16.3 C 13.18 g/m*3 16.3 C 8.1 km/h
502 19-06-2020 17:45:00 16.9 C 13.81 g/m*3 16.9 C 3.2 km/h
503 19-06-2020 17:50:00 17.9 C 14.81 g/m*3 17.9 C 3.2 km/h
504 19-06-2020 17:55:00 17.8 C 14.42 g/m*3 17.8 C 6.4 km/h
505 19-06-2020 18:00:00 17.7 C 14.18 g/m*3 17.7 C 4.8 km/h
506 19-06-2020 18:05:00 17.6 C 13.95 g/m*3 17.6 C 4.8 km/h
507 19-06-2020 18:10:00 17.4 C 13.63 g/m*3 17.4 C 8.1 km/h
508 19-06-2020 18:15:00 17.3 C 13.55 g/m*3 17.3 C 4.8 km/h
509 19-06-2020 18:20:00 17.4 C 13.78 g/m*3 17.4 C 0 km/h
510 19-06-2020 18:25:00 17.6 C 14.1 g/m*3 17.6 C 3.2 km/h
511 19-06-2020 18:30:00 18.1 C 14.68 g/m*3 18.1 C 1.6 km/h
512 19-06-2020 18:35:00 18.2 C 14.3 g/m*3 18.2 C 4.8 km/h
513 19-06-2020 18:40:00 18.5 C 14.71 g/m*3 18.5 C 3.2 km/h
514 19-06-2020 18:45:00 19.1 C 15.41 g/m*3 19.1 C 6.4 km/h
515 19-06-2020 18:50:00 19.2 C 14.51 g/m*3 19.2 C 4.8 km/h
516 19-06-2020 18:55:00 19.3 C 13.77 g/m*3 19.3 C 6.4 km/h
517 19-06-2020 19:00:00 19.3 C 13.6 g/m*3 19.3 C 4.8 km/h
518 19-06-2020 19:05:00 19.3 C 14.26 g/m*3 19.3 C 0 km/h
519 19-06-2020 19:10:00 19.4 C 14.68 g/m*3 19.4 C 1.6 km/h
520 19-06-2020 19:15:00 19.3 C 14.6 g/m*3 19.3 C 3.2 km/h
521 19-06-2020 19:20:00 19.3 C 14.76 g/m*3 19.3 C 4.8 km/h
522 19-06-2020 19:25:00 19.1 C 14.43 g/m*3 19.1 C 1.6 km/h
523 19-06-2020 19:30:00 18.9 C 14.26 g/m*3 18.9 C 1.6 km/h
524 19-06-2020 19:35:00 18.6 C 14.01 g/m*3 18.6 C 1.6 km/h
525 19-06-2020 19:40:00 18.4 C 14 g/m*3 18.4 C 4.8 km/h
Sensor: Nr:Datum:Temp:Abs-Feuchte:Windchill:Wind:
Aussen-T/F 526 19-06-2020 19:45:00 18.3 C 14.07 g/m*3 18.3 C 4.8 km/h
527 19-06-2020 19:50:00 18.4 C 14.47 g/m*3 18.4 C 4.8 km/h
528 19-06-2020 19:55:00 18.6 C 14.64 g/m*3 18.6 C 3.2 km/h
529 19-06-2020 20:00:00 18.8 C 14.98 g/m*3 18.8 C 3.2 km/h
530 19-06-2020 20:05:00 19.1 C 15.08 g/m*3 19.1 C 0 km/h
531 19-06-2020 20:10:00 18.9 C 14.58 g/m*3 18.9 C 0 km/h
532 19-06-2020 20:15:00 18.7 C 14.25 g/m*3 18.7 C 6.4 km/h
533 19-06-2020 20:20:00 18.3 C 13.76 g/m*3 18.3 C 8.1 km/h
534 19-06-2020 20:25:00 18.1 C 13.91 g/m*3 18.1 C 8.1 km/h
535 19-06-2020 20:30:00 17.9 C 13.74 g/m*3 17.9 C 8.1 km/h
536 19-06-2020 20:35:00 17.9 C 13.89 g/m*3 17.9 C 8.1 km/h
537 19-06-2020 20:40:00 17.8 C 13.81 g/m*3 17.8 C 8.1 km/h
538 19-06-2020 20:45:00 17.7 C 13.58 g/m*3 17.7 C 6.4 km/h
539 19-06-2020 20:50:00 17.5 C 13.42 g/m*3 17.5 C 8.1 km/h
540 19-06-2020 20:55:00 17.3 C 13.26 g/m*3 17.3 C 8.1 km/h
541 19-06-2020 21:00:00 17.1 C 13.1 g/m*3 17.1 C 8.1 km/h
542 19-06-2020 21:05:00 16.8 C 12.87 g/m*3 16.8 C 8.1 km/h
543 19-06-2020 21:10:00 16.6 C 12.71 g/m*3 16.6 C 8.1 km/h
544 19-06-2020 21:15:00 16.3 C 12.62 g/m*3 16.3 C 8.1 km/h
545 19-06-2020 21:20:00 16.2 C 12.55 g/m*3 16.2 C 8.1 km/h
546 19-06-2020 21:25:00 16 C 12.53 g/m*3 16 C 8.1 km/h
547 19-06-2020 21:30:00 15.9 C 12.46 g/m*3 15.9 C 6.4 km/h
548 19-06-2020 21:35:00 15.8 C 12.38 g/m*3 15.8 C 8.1 km/h
549 19-06-2020 21:40:00 15.7 C 12.31 g/m*3 15.7 C 3.2 km/h
550 19-06-2020 21:45:00 15.6 C 12.37 g/m*3 15.6 C 8.1 km/h
Sensor: Nr:Datum:Temp:Abs-Feuchte:Windchill:Wind:
Aussen-T/F 551 19-06-2020 21:50:00 15.5 C 12.29 g/m*3 15.5 C 8.1 km/h
552 19-06-2020 21:55:00 15.4 C 12.22 g/m*3 15.4 C 6.4 km/h
553 19-06-2020 22:00:00 15.3 C 12.14 g/m*3 15.3 C 6.4 km/h
554 19-06-2020 22:05:00 15.2 C 12.07 g/m*3 15.2 C 4.8 km/h
555 19-06-2020 22:10:00 15 C 11.93 g/m*3 15 C 4.8 km/h
556 19-06-2020 22:15:00 14.9 C 11.85 g/m*3 14.9 C 4.8 km/h
557 19-06-2020 22:20:00 14.8 C 11.91 g/m*3 14.8 C 3.2 km/h
558 19-06-2020 22:25:00 14.8 C 11.91 g/m*3 14.8 C 3.2 km/h
559 19-06-2020 22:30:00 14.7 C 11.83 g/m*3 14.7 C 3.2 km/h
560 19-06-2020 22:35:00 14.7 C 11.83 g/m*3 14.7 C 4.8 km/h
561 19-06-2020 22:40:00 14.6 C 11.76 g/m*3 14.6 C 4.8 km/h
562 19-06-2020 22:45:00 14.6 C 11.76 g/m*3 14.6 C 0 km/h
563 19-06-2020 22:50:00 14.6 C 11.89 g/m*3 14.6 C 3.2 km/h
564 19-06-2020 22:55:00 14.6 C 11.76 g/m*3 14.6 C 1.6 km/h
565 19-06-2020 23:00:00 14.5 C 11.69 g/m*3 14.5 C 0 km/h
566 19-06-2020 23:05:00 14.4 C 11.62 g/m*3 14.4 C 3.2 km/h
567 19-06-2020 23:10:00 14.3 C 11.55 g/m*3 14.3 C 3.2 km/h
568 19-06-2020 23:15:00 14.3 C 11.55 g/m*3 14.3 C 0 km/h
569 19-06-2020 23:20:00 14.2 C 11.6 g/m*3 14.2 C 0 km/h
570 19-06-2020 23:25:00 14.2 C 11.6 g/m*3 14.2 C 0 km/h
571 19-06-2020 23:30:00 14.1 C 11.53 g/m*3 14.1 C 0 km/h
572 19-06-2020 23:35:00 14.1 C 11.53 g/m*3 14.1 C 0 km/h
573 19-06-2020 23:40:00 14.1 C 11.53 g/m*3 14.1 C 0 km/h
574 19-06-2020 23:45:00 14 C 11.46 g/m*3 14 C 0 km/h
575 19-06-2020 23:50:00 14 C 11.46 g/m*3 14 C 0 km/h
Sensor: Nr:Datum:Temp:Abs-Feuchte:Windchill:Wind:
Aussen-T/F 576 19-06-2020 23:55:00 13.9 C 11.39 g/m*3 13.9 C 0 km/h
577 20-06-2020 00:00:00 13.9 C 11.39 g/m*3 13.9 C 0 km/h
578 20-06-2020 00:05:00 13.9 C 11.39 g/m*3 13.9 C 0 km/h
579 20-06-2020 00:10:00 13.8 C 11.32 g/m*3 13.8 C 0 km/h
580 20-06-2020 00:15:00 13.8 C 11.32 g/m*3 13.8 C 0 km/h
581 20-06-2020 00:20:00 13.7 C 11.25 g/m*3 13.7 C 0 km/h
582 20-06-2020 00:25:00 13.6 C 11.18 g/m*3 13.6 C 1.6 km/h
583 20-06-2020 00:30:00 13.5 C 11.11 g/m*3 13.5 C 0 km/h
584 20-06-2020 00:35:00 13.4 C 11.04 g/m*3 13.4 C 0 km/h
585 20-06-2020 00:40:00 13.4 C 11.04 g/m*3 13.4 C 0 km/h
586 20-06-2020 00:45:00 13.4 C 11.04 g/m*3 13.4 C 0 km/h
587 20-06-2020 00:50:00 13.3 C 10.98 g/m*3 13.3 C 0 km/h
588 20-06-2020 00:55:00 13.3 C 11.09 g/m*3 13.3 C 0 km/h
589 20-06-2020 01:00:00 13.3 C 11.09 g/m*3 13.3 C 0 km/h
590 20-06-2020 01:05:00 13.4 C 11.16 g/m*3 13.4 C 0 km/h
591 20-06-2020 01:10:00 13.4 C 11.16 g/m*3 13.4 C 0 km/h
592 20-06-2020 01:15:00 13.4 C 11.16 g/m*3 13.4 C 0 km/h
593 20-06-2020 01:20:00 13.5 C 11.23 g/m*3 13.5 C 0 km/h
594 20-06-2020 01:25:00 13.5 C 11.23 g/m*3 13.5 C 0 km/h
595 20-06-2020 01:30:00 13.5 C 11.23 g/m*3 13.5 C 0 km/h
596 20-06-2020 01:35:00 13.5 C 11.23 g/m*3 13.5 C 0 km/h
597 20-06-2020 01:40:00 13.5 C 11.23 g/m*3 13.5 C 0 km/h
598 20-06-2020 01:45:00 13.5 C 11.23 g/m*3 13.5 C 0 km/h
599 20-06-2020 01:50:00 13.6 C 11.3 g/m*3 13.6 C 0 km/h
600 20-06-2020 01:55:00 13.6 C 11.3 g/m*3 13.6 C 1.6 km/h
Sensor: Nr:Datum:Temp:Abs-Feuchte:Windchill:Wind:
Aussen-T/F 601 20-06-2020 02:00:00 13.6 C 11.3 g/m*3 13.6 C 1.6 km/h
602 20-06-2020 02:05:00 13.6 C 11.3 g/m*3 13.6 C 0 km/h
603 20-06-2020 02:10:00 13.6 C 11.3 g/m*3 13.6 C 0 km/h
604 20-06-2020 02:15:00 13.5 C 11.23 g/m*3 13.5 C 0 km/h
605 20-06-2020 02:20:00 13.4 C 11.16 g/m*3 13.4 C 0 km/h
606 20-06-2020 02:25:00 13.3 C 11.09 g/m*3 13.3 C 0 km/h
607 20-06-2020 02:30:00 13.3 C 11.09 g/m*3 13.3 C 0 km/h
608 20-06-2020 02:35:00 13.2 C 11.02 g/m*3 13.2 C 3.2 km/h
609 20-06-2020 02:40:00 13.2 C 11.02 g/m*3 13.2 C 3.2 km/h
610 20-06-2020 02:45:00 13.2 C 11.02 g/m*3 13.2 C 0 km/h
611 20-06-2020 02:50:00 13.2 C 11.02 g/m*3 13.2 C 0 km/h
612 20-06-2020 02:55:00 13.2 C 11.02 g/m*3 13.2 C 0 km/h
613 20-06-2020 03:00:00 13.2 C 11.02 g/m*3 13.2 C 0 km/h
614 20-06-2020 03:05:00 13.1 C 10.95 g/m*3 13.1 C 0 km/h
615 20-06-2020 03:10:00 13.1 C 10.95 g/m*3 13.1 C 0 km/h
616 20-06-2020 03:15:00 13 C 10.89 g/m*3 13 C 0 km/h
617 20-06-2020 03:20:00 13 C 10.89 g/m*3 13 C 0 km/h
618 20-06-2020 03:25:00 12.9 C 10.82 g/m*3 12.9 C 0 km/h
619 20-06-2020 03:30:00 12.9 C 10.82 g/m*3 12.9 C 0 km/h
620 20-06-2020 03:35:00 12.9 C 10.82 g/m*3 12.9 C 0 km/h
621 20-06-2020 03:40:00 12.9 C 10.82 g/m*3 12.9 C 0 km/h
622 20-06-2020 03:45:00 12.9 C 10.82 g/m*3 12.9 C 0 km/h
623 20-06-2020 03:50:00 12.8 C 10.75 g/m*3 12.8 C 0 km/h
624 20-06-2020 03:55:00 12.8 C 10.75 g/m*3 12.8 C 0 km/h
625 20-06-2020 04:00:00 12.8 C 10.75 g/m*3 12.8 C 0 km/h
Sensor: Nr:Datum:Temp:Abs-Feuchte:Windchill:Wind:
Aussen-T/F 626 20-06-2020 04:05:00 12.7 C 10.69 g/m*3 12.7 C 0 km/h
627 20-06-2020 04:10:00 12.7 C 10.69 g/m*3 12.7 C 3.2 km/h
628 20-06-2020 04:15:00 12.7 C 10.69 g/m*3 12.7 C 0 km/h
629 20-06-2020 04:20:00 12.6 C 10.62 g/m*3 12.6 C 0 km/h
630 20-06-2020 04:25:00 12.6 C 10.62 g/m*3 12.6 C 1.6 km/h
631 20-06-2020 04:30:00 12.6 C 10.62 g/m*3 12.6 C 0 km/h
632 20-06-2020 04:35:00 12.5 C 10.55 g/m*3 12.5 C 0 km/h
633 20-06-2020 04:40:00 12.5 C 10.66 g/m*3 12.5 C 0 km/h
634 20-06-2020 04:45:00 12.4 C 10.6 g/m*3 12.4 C 0 km/h
635 20-06-2020 04:50:00 12.5 C 10.66 g/m*3 12.5 C 0 km/h
636 20-06-2020 04:55:00 12.5 C 10.66 g/m*3 12.5 C 0 km/h
637 20-06-2020 05:00:00 12.6 C 10.73 g/m*3 12.6 C 1.6 km/h
638 20-06-2020 05:05:00 12.6 C 10.73 g/m*3 12.6 C 0 km/h
639 20-06-2020 05:10:00 12.6 C 10.73 g/m*3 12.6 C 0 km/h
640 20-06-2020 05:15:00 12.6 C 10.73 g/m*3 12.6 C 0 km/h
641 20-06-2020 05:20:00 12.6 C 10.73 g/m*3 12.6 C 0 km/h
642 20-06-2020 05:25:00 12.6 C 10.73 g/m*3 12.6 C 0 km/h
643 20-06-2020 05:30:00 12.5 C 10.66 g/m*3 12.5 C 0 km/h
644 20-06-2020 05:35:00 12.4 C 10.6 g/m*3 12.4 C 1.6 km/h
645 20-06-2020 05:40:00 12.3 C 10.42 g/m*3 12.3 C 0 km/h
646 20-06-2020 05:45:00 12.3 C 10.42 g/m*3 12.3 C 0 km/h
647 20-06-2020 05:50:00 12.3 C 10.53 g/m*3 12.3 C 3.2 km/h
648 20-06-2020 05:55:00 12.3 C 10.53 g/m*3 12.3 C 1.6 km/h
649 20-06-2020 06:00:00 12.3 C 10.53 g/m*3 12.3 C 3.2 km/h
650 20-06-2020 06:05:00 12.5 C 10.66 g/m*3 12.5 C 1.6 km/h
Sensor: Nr:Datum:Temp:Abs-Feuchte:Windchill:Wind:
Aussen-T/F 651 20-06-2020 06:10:00 12.6 C 10.73 g/m*3 12.6 C 0 km/h
652 20-06-2020 06:15:00 12.6 C 10.73 g/m*3 12.6 C 0 km/h
653 20-06-2020 06:20:00 12.6 C 10.73 g/m*3 12.6 C 3.2 km/h
654 20-06-2020 06:25:00 12.6 C 10.73 g/m*3 12.6 C 3.2 km/h
655 20-06-2020 06:30:00 12.7 C 10.8 g/m*3 12.7 C 6.4 km/h
656 20-06-2020 06:35:00 12.7 C 10.8 g/m*3 12.7 C 6.4 km/h
657 20-06-2020 06:40:00 12.7 C 10.8 g/m*3 12.7 C 3.2 km/h
658 20-06-2020 06:45:00 12.8 C 10.87 g/m*3 12.8 C 3.2 km/h
659 20-06-2020 06:50:00 12.8 C 10.87 g/m*3 12.8 C 6.4 km/h
660 20-06-2020 06:55:00 12.8 C 10.87 g/m*3 12.8 C 8.1 km/h
661 20-06-2020 07:00:00 12.8 C 10.87 g/m*3 12.8 C 8.1 km/h
662 20-06-2020 07:05:00 12.9 C 10.93 g/m*3 12.9 C 6.4 km/h
663 20-06-2020 07:10:00 12.9 C 10.93 g/m*3 12.9 C 6.4 km/h
664 20-06-2020 07:15:00 13 C 11 g/m*3 13 C 6.4 km/h
665 20-06-2020 07:20:00 13 C 11 g/m*3 13 C 4.8 km/h
666 20-06-2020 07:25:00 13 C 11 g/m*3 13 C 3.2 km/h
667 20-06-2020 07:30:00 13.1 C 11.07 g/m*3 13.1 C 6.4 km/h
668 20-06-2020 07:35:00 13.1 C 11.07 g/m*3 13.1 C 3.2 km/h
669 20-06-2020 07:40:00 13.1 C 11.07 g/m*3 13.1 C 3.2 km/h
670 20-06-2020 07:45:00 13.2 C 11.14 g/m*3 13.2 C 0 km/h
671 20-06-2020 07:50:00 13.2 C 11.14 g/m*3 13.2 C 0 km/h
672 20-06-2020 07:55:00 13.3 C 11.21 g/m*3 13.3 C 0 km/h
673 20-06-2020 08:00:00 13.3 C 11.21 g/m*3 13.3 C 0 km/h
674 20-06-2020 08:05:00 13.4 C 11.28 g/m*3 13.4 C 0 km/h
675 20-06-2020 08:10:00 13.6 C 11.42 g/m*3 13.6 C 0 km/h
Sensor: Nr:Datum:Temp:Abs-Feuchte:Windchill:Wind:
Aussen-T/F 676 20-06-2020 08:15:00 13.7 C 11.49 g/m*3 13.7 C 0 km/h
677 20-06-2020 08:20:00 14 C 11.82 g/m*3 14 C 0 km/h
678 20-06-2020 08:25:00 14.1 C 11.89 g/m*3 14.1 C 0 km/h
679 20-06-2020 08:30:00 14.3 C 12.04 g/m*3 14.3 C 0 km/h
680 20-06-2020 08:35:00 14.4 C 12.11 g/m*3 14.4 C 1.6 km/h
681 20-06-2020 08:40:00 14.6 C 12.26 g/m*3 14.6 C 0 km/h
682 20-06-2020 08:45:00 14.7 C 12.34 g/m*3 14.7 C 1.6 km/h
683 20-06-2020 08:50:00 14.7 C 12.34 g/m*3 14.7 C 1.6 km/h
684 20-06-2020 08:55:00 14.7 C 12.34 g/m*3 14.7 C 0 km/h
685 20-06-2020 09:00:00 14.8 C 12.29 g/m*3 14.8 C 0 km/h
686 20-06-2020 09:05:00 14.8 C 12.29 g/m*3 14.8 C 0 km/h
687 20-06-2020 09:10:00 14.8 C 12.29 g/m*3 14.8 C 0 km/h
688 20-06-2020 09:15:00 14.9 C 12.36 g/m*3 14.9 C 3.2 km/h
689 20-06-2020 09:20:00 15.1 C 12.51 g/m*3 15.1 C 1.6 km/h
690 20-06-2020 09:25:00 15.2 C 12.59 g/m*3 15.2 C 0 km/h
691 20-06-2020 09:30:00 15.4 C 12.74 g/m*3 15.4 C 0 km/h
692 20-06-2020 09:35:00 15.6 C 12.9 g/m*3 15.6 C 0 km/h
693 20-06-2020 09:40:00 15.7 C 12.84 g/m*3 15.7 C 0 km/h
694 20-06-2020 09:45:00 15.8 C 12.92 g/m*3 15.8 C 1.6 km/h
695 20-06-2020 09:50:00 16 C 13.08 g/m*3 16 C 1.6 km/h
696 20-06-2020 09:55:00 16.2 C 13.1 g/m*3 16.2 C 1.6 km/h
697 20-06-2020 10:00:00 16.3 C 13.18 g/m*3 16.3 C 0 km/h
698 20-06-2020 10:05:00 16.4 C 13.26 g/m*3 16.4 C 0 km/h
699 20-06-2020 10:10:00 16.5 C 13.34 g/m*3 16.5 C 0 km/h
700 20-06-2020 10:15:00 16.7 C 13.5 g/m*3 16.7 C 0 km/h
Sensor: Nr:Datum:Temp:Abs-Feuchte:Windchill:Wind:
Aussen-T/F 701 20-06-2020 10:20:00 16.8 C 13.15 g/m*3 16.8 C 6.4 km/h
702 20-06-2020 10:25:00 17.2 C 13.18 g/m*3 17.2 C 6.4 km/h
703 20-06-2020 10:30:00 17.7 C 13.73 g/m*3 17.7 C 0 km/h
704 20-06-2020 10:35:00 18 C 13.82 g/m*3 18 C 0 km/h
705 20-06-2020 10:40:00 18.3 C 13.13 g/m*3 18.3 C 1.6 km/h
706 20-06-2020 10:45:00 18.7 C 13.13 g/m*3 18.7 C 0 km/h
707 20-06-2020 10:50:00 18.9 C 12.8 g/m*3 18.9 C 4.8 km/h
708 20-06-2020 10:55:00 19.3 C 12.94 g/m*3 19.3 C 8.1 km/h
709 20-06-2020 11:00:00 19.4 C 12.51 g/m*3 19.4 C 4.8 km/h
710 20-06-2020 11:05:00 19.6 C 12.83 g/m*3 19.6 C 3.2 km/h
711 20-06-2020 11:10:00 19.9 C 13.06 g/m*3 19.9 C 6.4 km/h
712 20-06-2020 11:15:00 20.2 C 13.11 g/m*3 20.2 C 11.3 km/h
713 20-06-2020 11:20:00 20.4 C 13.27 g/m*3 20.4 C 6.4 km/h
714 20-06-2020 11:25:00 20.4 C 12.74 g/m*3 20.4 C 6.4 km/h
715 20-06-2020 11:30:00 20.3 C 12.84 g/m*3 20.3 C 3.2 km/h
716 20-06-2020 11:35:00 20.3 C 12.84 g/m*3 20.3 C 8.1 km/h
717 20-06-2020 11:40:00 20.3 C 13.01 g/m*3 20.3 C 8.1 km/h
718 20-06-2020 11:45:00 20.3 C 12.66 g/m*3 20.3 C 6.4 km/h
719 20-06-2020 11:50:00 20.2 C 12.59 g/m*3 20.2 C 3.2 km/h
720 20-06-2020 11:55:00 20.1 C 12.86 g/m*3 20.1 C 8.1 km/h
721 20-06-2020 12:00:00 20 C 12.62 g/m*3 20 C 6.4 km/h
722 20-06-2020 12:05:00 19.9 C 12.71 g/m*3 19.9 C 6.4 km/h
723 20-06-2020 12:10:00 19.8 C 11.61 g/m*3 19.8 C 6.4 km/h
724 20-06-2020 12:15:00 19.8 C 12.3 g/m*3 19.8 C 4.8 km/h
725 20-06-2020 12:20:00 19.8 C 13.32 g/m*3 19.8 C 6.4 km/h
Sensor: Nr:Datum:Temp:Abs-Feuchte:Windchill:Wind:
Aussen-T/F 726 20-06-2020 12:25:00 19.6 C 13 g/m*3 19.6 C 4.8 km/h
727 20-06-2020 12:30:00 19.6 C 13 g/m*3 19.6 C 6.4 km/h
728 20-06-2020 12:35:00 19.6 C 12.66 g/m*3 19.6 C 4.8 km/h
729 20-06-2020 12:40:00 19.6 C 13 g/m*3 19.6 C 3.2 km/h
730 20-06-2020 12:45:00 19.8 C 13.15 g/m*3 19.8 C 1.6 km/h
731 20-06-2020 12:50:00 19.8 C 12.98 g/m*3 19.8 C 1.6 km/h
732 20-06-2020 12:55:00 19.9 C 13.23 g/m*3 19.9 C 3.2 km/h
733 20-06-2020 13:00:00 19.9 C 13.06 g/m*3 19.9 C 4.8 km/h
734 20-06-2020 13:05:00 19.8 C 13.15 g/m*3 19.8 C 4.8 km/h
735 20-06-2020 13:10:00 19.7 C 13.25 g/m*3 19.7 C 3.2 km/h
736 20-06-2020 13:15:00 19.7 C 13.41 g/m*3 19.7 C 4.8 km/h
737 20-06-2020 13:20:00 19.6 C 13.34 g/m*3 19.6 C 1.6 km/h
738 20-06-2020 13:25:00 19.5 C 13.26 g/m*3 19.5 C 6.4 km/h
739 20-06-2020 13:30:00 19.3 C 13.27 g/m*3 19.3 C 3.2 km/h
740 20-06-2020 13:35:00 19.4 C 13.35 g/m*3 19.4 C 3.2 km/h
741 20-06-2020 13:40:00 19.4 C 13.18 g/m*3 19.4 C 1.6 km/h
742 20-06-2020 13:45:00 19.5 C 13.26 g/m*3 19.5 C 3.2 km/h
743 20-06-2020 13:50:00 19.6 C 13.51 g/m*3 19.6 C 4.8 km/h
744 20-06-2020 13:55:00 19.7 C 13.25 g/m*3 19.7 C 6.4 km/h
745 20-06-2020 14:00:00 19.7 C 13.25 g/m*3 19.7 C 4.8 km/h
746 20-06-2020 14:05:00 19.8 C 13.15 g/m*3 19.8 C 4.8 km/h
747 20-06-2020 14:10:00 19.8 C 13.32 g/m*3 19.8 C 4.8 km/h
748 20-06-2020 14:15:00 19.9 C 12.71 g/m*3 19.9 C 3.2 km/h
749 20-06-2020 14:20:00 19.9 C 12.54 g/m*3 19.9 C 6.4 km/h
750 20-06-2020 14:25:00 19.9 C 12.54 g/m*3 19.9 C 8.1 km/h
Sensor: Nr:Datum:Temp:Abs-Feuchte:Windchill:Wind:
Aussen-T/F 751 20-06-2020 14:30:00 19.8 C 12.64 g/m*3 19.8 C 4.8 km/h
752 20-06-2020 14:35:00 19.7 C 12.4 g/m*3 19.7 C 0 km/h
753 20-06-2020 14:40:00 19.7 C 12.74 g/m*3 19.7 C 0 km/h
754 20-06-2020 14:45:00 19.6 C 12.83 g/m*3 19.6 C 0 km/h
755 20-06-2020 14:50:00 19.6 C 13.17 g/m*3 19.6 C 0 km/h
756 20-06-2020 14:55:00 19.5 C 12.75 g/m*3 19.5 C 0 km/h
757 20-06-2020 15:00:00 19.4 C 12.68 g/m*3 19.4 C 4.8 km/h
758 20-06-2020 15:05:00 19.5 C 13.09 g/m*3 19.5 C 0 km/h
759 20-06-2020 15:10:00 19.6 C 13.17 g/m*3 19.6 C 0 km/h
760 20-06-2020 15:15:00 19.7 C 13.25 g/m*3 19.7 C 1.6 km/h
761 20-06-2020 15:20:00 19.7 C 12.4 g/m*3 19.7 C 0 km/h
762 20-06-2020 15:25:00 19.7 C 12.74 g/m*3 19.7 C 1.6 km/h
763 20-06-2020 15:30:00 19.9 C 12.71 g/m*3 19.9 C 3.2 km/h
764 20-06-2020 15:35:00 20.2 C 12.41 g/m*3 20.2 C 4.8 km/h
765 20-06-2020 15:40:00 20.4 C 12.21 g/m*3 20.4 C 4.8 km/h
766 20-06-2020 15:45:00 20.9 C 12.57 g/m*3 20.9 C 3.2 km/h
767 20-06-2020 15:50:00 21.5 C 13.2 g/m*3 21.5 C 6.4 km/h
768 20-06-2020 15:55:00 22 C 13.2 g/m*3 22 C 3.2 km/h
769 20-06-2020 16:00:00 22.6 C 13.26 g/m*3 22.6 C 4.8 km/h
770 20-06-2020 16:05:00 23.2 C 13.1 g/m*3 23.2 C 4.8 km/h
771 20-06-2020 16:10:00 23.4 C 11.99 g/m*3 23.4 C 4.8 km/h
772 20-06-2020 16:15:00 23.3 C 12.34 g/m*3 23.3 C 4.8 km/h
773 20-06-2020 16:20:00 23.2 C 12.47 g/m*3 23.2 C 6.4 km/h
774 20-06-2020 16:25:00 23.2 C 12.06 g/m*3 23.2 C 4.8 km/h
775 20-06-2020 16:30:00 22.9 C 12.06 g/m*3 22.9 C 6.4 km/h
Sensor: Nr:Datum:Temp:Abs-Feuchte:Windchill:Wind:
Aussen-T/F 776 20-06-2020 16:35:00 22.8 C 11.99 g/m*3 22.8 C 6.4 km/h
777 20-06-2020 16:40:00 22.7 C 11.52 g/m*3 22.7 C 9.7 km/h
778 20-06-2020 16:45:00 22.6 C 11.25 g/m*3 22.6 C 11.3 km/h
779 20-06-2020 16:50:00 22.4 C 11.52 g/m*3 22.4 C 9.7 km/h
780 20-06-2020 16:55:00 22.4 C 11.32 g/m*3 22.4 C 9.7 km/h
781 20-06-2020 17:00:00 22.4 C 11.52 g/m*3 22.4 C 6.4 km/h
782 20-06-2020 17:05:00 22.5 C 11.78 g/m*3 22.5 C 9.7 km/h
783 20-06-2020 17:10:00 22.4 C 11.52 g/m*3 22.4 C 8.1 km/h
784 20-06-2020 17:15:00 22.4 C 11.52 g/m*3 22.4 C 9.7 km/h
785 20-06-2020 17:20:00 22.4 C 11.12 g/m*3 22.4 C 8.1 km/h
786 20-06-2020 17:25:00 22.4 C 11.72 g/m*3 22.4 C 8.1 km/h
787 20-06-2020 17:30:00 22.3 C 11.06 g/m*3 22.3 C 4.8 km/h
788 20-06-2020 17:35:00 22.3 C 10.86 g/m*3 22.3 C 3.2 km/h
789 20-06-2020 17:40:00 22.2 C 11.19 g/m*3 22.2 C 3.2 km/h
790 20-06-2020 17:45:00 22.2 C 11.19 g/m*3 22.2 C 4.8 km/h
791 20-06-2020 17:50:00 22.2 C 10.6 g/m*3 22.2 C 4.8 km/h
792 20-06-2020 17:55:00 22.3 C 12.24 g/m*3 22.3 C 0 km/h
793 20-06-2020 18:00:00 22.4 C 13.5 g/m*3 22.4 C 0 km/h
794 20-06-2020 18:05:00 22.4 C 13.7 g/m*3 22.4 C 0 km/h
795 20-06-2020 18:10:00 22.2 C 12.17 g/m*3 22.2 C 12.9 km/h
796 20-06-2020 18:15:00 21.8 C 12.28 g/m*3 21.8 C 12.9 km/h
797 20-06-2020 18:20:00 21.4 C 12.56 g/m*3 21.4 C 11.3 km/h
798 20-06-2020 18:25:00 21 C 12.64 g/m*3 21 C 14.5 km/h
799 20-06-2020 18:30:00 20.7 C 12.78 g/m*3 20.7 C 9.7 km/h
800 20-06-2020 18:35:00 20.4 C 12.74 g/m*3 20.4 C 9.7 km/h
Sensor: Nr:Datum:Temp:Abs-Feuchte:Windchill:Wind:
Aussen-T/F 801 20-06-2020 18:40:00 20.2 C 12.76 g/m*3 20.2 C 6.4 km/h
802 20-06-2020 18:45:00 20.2 C 13.11 g/m*3 20.2 C 1.6 km/h
803 20-06-2020 18:50:00 20.1 C 13.04 g/m*3 20.1 C 6.4 km/h
804 20-06-2020 18:55:00 20 C 12.79 g/m*3 20 C 6.4 km/h
805 20-06-2020 19:00:00 19.9 C 12.89 g/m*3 19.9 C 8.1 km/h
806 20-06-2020 19:05:00 19.8 C 12.81 g/m*3 19.8 C 8.1 km/h
807 20-06-2020 19:10:00 19.7 C 12.74 g/m*3 19.7 C 3.2 km/h
808 20-06-2020 19:15:00 19.7 C 12.91 g/m*3 19.7 C 4.8 km/h
809 20-06-2020 19:20:00 19.7 C 12.74 g/m*3 19.7 C 9.7 km/h
810 20-06-2020 19:25:00 19.7 C 12.74 g/m*3 19.7 C 6.4 km/h
811 20-06-2020 19:30:00 19.7 C 12.91 g/m*3 19.7 C 3.2 km/h
812 20-06-2020 19:35:00 19.6 C 13 g/m*3 19.6 C 8.1 km/h
813 20-06-2020 19:40:00 19.5 C 12.75 g/m*3 19.5 C 6.4 km/h
814 20-06-2020 19:45:00 19.4 C 12.85 g/m*3 19.4 C 6.4 km/h
815 20-06-2020 19:50:00 19.4 C 13.01 g/m*3 19.4 C 4.8 km/h
816 20-06-2020 19:55:00 19.4 C 13.18 g/m*3 19.4 C 1.6 km/h
817 20-06-2020 20:00:00 19.4 C 13.18 g/m*3 19.4 C 0 km/h
818 20-06-2020 20:05:00 19.3 C 13.27 g/m*3 19.3 C 1.6 km/h
819 20-06-2020 20:10:00 19.3 C 13.27 g/m*3 19.3 C 4.8 km/h
820 20-06-2020 20:15:00 19.2 C 13.36 g/m*3 19.2 C 3.2 km/h
821 20-06-2020 20:20:00 19.1 C 13.44 g/m*3 19.1 C 3.2 km/h
822 20-06-2020 20:25:00 19.1 C 13.44 g/m*3 19.1 C 3.2 km/h
823 20-06-2020 20:30:00 18.9 C 13.45 g/m*3 18.9 C 0 km/h
824 20-06-2020 20:35:00 18.9 C 13.45 g/m*3 18.9 C 0 km/h
825 20-06-2020 20:40:00 18.9 C 13.45 g/m*3 18.9 C 0 km/h
Sensor: Nr:Datum:Temp:Abs-Feuchte:Windchill:Wind:
Aussen-T/F 826 20-06-2020 20:45:00 18.8 C 13.21 g/m*3 18.8 C 4.8 km/h
827 20-06-2020 20:50:00 18.8 C 13.53 g/m*3 18.8 C 0 km/h
828 20-06-2020 20:55:00 18.8 C 13.53 g/m*3 18.8 C 1.6 km/h
829 20-06-2020 21:00:00 18.8 C 13.21 g/m*3 18.8 C 1.6 km/h
830 20-06-2020 21:05:00 18.7 C 13.13 g/m*3 18.7 C 3.2 km/h
831 20-06-2020 21:10:00 18.7 C 13.13 g/m*3 18.7 C 1.6 km/h
832 20-06-2020 21:15:00 18.7 C 13.29 g/m*3 18.7 C 4.8 km/h
833 20-06-2020 21:20:00 18.7 C 13.45 g/m*3 18.7 C 3.2 km/h
834 20-06-2020 21:25:00 18.6 C 13.37 g/m*3 18.6 C 4.8 km/h
835 20-06-2020 21:30:00 18.4 C 13.21 g/m*3 18.4 C 4.8 km/h
836 20-06-2020 21:35:00 18.3 C 13.13 g/m*3 18.3 C 3.2 km/h
837 20-06-2020 21:40:00 18.1 C 13.13 g/m*3 18.1 C 3.2 km/h
838 20-06-2020 21:45:00 17.9 C 12.98 g/m*3 17.9 C 1.6 km/h
839 20-06-2020 21:50:00 17.8 C 12.9 g/m*3 17.8 C 0 km/h
840 20-06-2020 21:55:00 17.7 C 12.82 g/m*3 17.7 C 3.2 km/h
841 20-06-2020 22:00:00 17.5 C 12.82 g/m*3 17.5 C 4.8 km/h
842 20-06-2020 22:05:00 17.4 C 12.75 g/m*3 17.4 C 3.2 km/h
843 20-06-2020 22:10:00 17.3 C 12.82 g/m*3 17.3 C 0 km/h
844 20-06-2020 22:15:00 17.2 C 12.74 g/m*3 17.2 C 0 km/h
845 20-06-2020 22:20:00 17.1 C 12.66 g/m*3 17.1 C 1.6 km/h
846 20-06-2020 22:25:00 17 C 12.59 g/m*3 17 C 4.8 km/h
847 20-06-2020 22:30:00 16.9 C 12.66 g/m*3 16.9 C 4.8 km/h
848 20-06-2020 22:35:00 16.8 C 12.58 g/m*3 16.8 C 4.8 km/h
849 20-06-2020 22:40:00 16.8 C 12.58 g/m*3 16.8 C 3.2 km/h
850 20-06-2020 22:45:00 16.7 C 12.51 g/m*3 16.7 C 0 km/h
Sensor: Nr:Datum:Temp:Abs-Feuchte:Windchill:Wind:
Aussen-T/F 851 20-06-2020 22:50:00 16.7 C 12.51 g/m*3 16.7 C 3.2 km/h
852 20-06-2020 22:55:00 16.6 C 12.43 g/m*3 16.6 C 0 km/h
853 20-06-2020 23:00:00 16.4 C 12.28 g/m*3 16.4 C 6.4 km/h
854 20-06-2020 23:05:00 16.3 C 12.21 g/m*3 16.3 C 3.2 km/h
855 20-06-2020 23:10:00 16.2 C 12.14 g/m*3 16.2 C 3.2 km/h
856 20-06-2020 23:15:00 16 C 11.99 g/m*3 16 C 3.2 km/h
857 20-06-2020 23:20:00 15.8 C 11.85 g/m*3 15.8 C 1.6 km/h
858 20-06-2020 23:25:00 15.7 C 11.91 g/m*3 15.7 C 1.6 km/h
859 20-06-2020 23:30:00 15.6 C 11.84 g/m*3 15.6 C 1.6 km/h
860 20-06-2020 23:35:00 15.5 C 11.76 g/m*3 15.5 C 1.6 km/h
861 20-06-2020 23:40:00 15.3 C 11.62 g/m*3 15.3 C 3.2 km/h
862 20-06-2020 23:45:00 15.2 C 11.68 g/m*3 15.2 C 1.6 km/h
863 20-06-2020 23:50:00 15.2 C 11.68 g/m*3 15.2 C 0 km/h
864 20-06-2020 23:55:00 15.1 C 11.61 g/m*3 15.1 C 0 km/h
865 21-06-2020 00:00:00 14.9 C 11.47 g/m*3 14.9 C 1.6 km/h
866 21-06-2020 00:05:00 14.8 C 11.4 g/m*3 14.8 C 1.6 km/h
867 21-06-2020 00:10:00 14.8 C 11.53 g/m*3 14.8 C 0 km/h
868 21-06-2020 00:15:00 14.7 C 11.46 g/m*3 14.7 C 0 km/h
869 21-06-2020 00:20:00 14.6 C 11.39 g/m*3 14.6 C 0 km/h
870 21-06-2020 00:25:00 14.5 C 11.44 g/m*3 14.5 C 0 km/h
871 21-06-2020 00:30:00 14.4 C 11.37 g/m*3 14.4 C 1.6 km/h
872 21-06-2020 00:35:00 14.3 C 11.3 g/m*3 14.3 C 0 km/h
873 21-06-2020 00:40:00 14.3 C 11.3 g/m*3 14.3 C 0 km/h
874 21-06-2020 00:45:00 14.2 C 11.23 g/m*3 14.2 C 0 km/h
875 21-06-2020 00:50:00 14.2 C 11.23 g/m*3 14.2 C 1.6 km/h
Sensor: Nr:Datum:Temp:Abs-Feuchte:Windchill:Wind:
Aussen-T/F 876 21-06-2020 00:55:00 14.1 C 11.29 g/m*3 14.1 C 1.6 km/h
877 21-06-2020 01:00:00 14.1 C 11.29 g/m*3 14.1 C 1.6 km/h
878 21-06-2020 01:05:00 14.1 C 11.29 g/m*3 14.1 C 0 km/h
879 21-06-2020 01:10:00 13.9 C 11.15 g/m*3 13.9 C 1.6 km/h
880 21-06-2020 01:15:00 13.9 C 11.15 g/m*3 13.9 C 1.6 km/h
881 21-06-2020 01:20:00 13.8 C 11.08 g/m*3 13.8 C 0 km/h
882 21-06-2020 01:25:00 13.8 C 11.08 g/m*3 13.8 C 0 km/h
883 21-06-2020 01:30:00 13.8 C 11.08 g/m*3 13.8 C 0 km/h
884 21-06-2020 01:35:00 13.7 C 11.13 g/m*3 13.7 C 0 km/h
885 21-06-2020 01:40:00 13.7 C 11.13 g/m*3 13.7 C 0 km/h
886 21-06-2020 01:45:00 13.7 C 11.13 g/m*3 13.7 C 0 km/h
887 21-06-2020 01:50:00 13.6 C 11.06 g/m*3 13.6 C 0 km/h
888 21-06-2020 01:55:00 13.6 C 11.06 g/m*3 13.6 C 1.6 km/h
889 21-06-2020 02:00:00 13.6 C 11.06 g/m*3 13.6 C 0 km/h
890 21-06-2020 02:05:00 13.5 C 10.99 g/m*3 13.5 C 0 km/h
891 21-06-2020 02:10:00 13.4 C 10.93 g/m*3 13.4 C 0 km/h
892 21-06-2020 02:15:00 13.3 C 10.86 g/m*3 13.3 C 0 km/h
893 21-06-2020 02:20:00 13.3 C 10.86 g/m*3 13.3 C 1.6 km/h
894 21-06-2020 02:25:00 13.2 C 10.79 g/m*3 13.2 C 1.6 km/h
895 21-06-2020 02:30:00 13.2 C 10.79 g/m*3 13.2 C 0 km/h
896 21-06-2020 02:35:00 13.2 C 10.79 g/m*3 13.2 C 0 km/h
897 21-06-2020 02:40:00 13.2 C 10.91 g/m*3 13.2 C 0 km/h
898 21-06-2020 02:45:00 13.1 C 10.84 g/m*3 13.1 C 3.2 km/h
899 21-06-2020 02:50:00 13 C 10.66 g/m*3 13 C 3.2 km/h
900 21-06-2020 02:55:00 12.9 C 10.59 g/m*3 12.9 C 0 km/h
Sensor: Nr:Datum:Temp:Abs-Feuchte:Windchill:Wind:
Aussen-T/F 901 21-06-2020 03:00:00 12.8 C 10.53 g/m*3 12.8 C 0 km/h
902 21-06-2020 03:05:00 12.8 C 10.64 g/m*3 12.8 C 0 km/h
903 21-06-2020 03:10:00 12.8 C 10.64 g/m*3 12.8 C 0 km/h
904 21-06-2020 03:15:00 12.8 C 10.64 g/m*3 12.8 C 1.6 km/h
905 21-06-2020 03:20:00 12.7 C 10.58 g/m*3 12.7 C 0 km/h
906 21-06-2020 03:25:00 12.6 C 10.51 g/m*3 12.6 C 0 km/h
907 21-06-2020 03:30:00 12.5 C 10.44 g/m*3 12.5 C 0 km/h
908 21-06-2020 03:35:00 12.4 C 10.38 g/m*3 12.4 C 0 km/h
909 21-06-2020 03:40:00 12.4 C 10.38 g/m*3 12.4 C 0 km/h
910 21-06-2020 03:45:00 12.3 C 10.32 g/m*3 12.3 C 0 km/h
911 21-06-2020 03:50:00 12.2 C 10.25 g/m*3 12.2 C 0 km/h
912 21-06-2020 03:55:00 12.1 C 10.19 g/m*3 12.1 C 0 km/h
913 21-06-2020 04:00:00 12 C 10.12 g/m*3 12 C 0 km/h
914 21-06-2020 04:05:00 11.9 C 10.06 g/m*3 11.9 C 0 km/h
915 21-06-2020 04:10:00 11.9 C 10.06 g/m*3 11.9 C 0 km/h
916 21-06-2020 04:15:00 11.8 C 10 g/m*3 11.8 C 0 km/h
917 21-06-2020 04:20:00 11.8 C 10 g/m*3 11.8 C 0 km/h
918 21-06-2020 04:25:00 11.7 C 9.94 g/m*3 11.7 C 0 km/h
919 21-06-2020 04:30:00 11.7 C 9.94 g/m*3 11.7 C 0 km/h
920 21-06-2020 04:35:00 11.7 C 9.94 g/m*3 11.7 C 0 km/h
921 21-06-2020 04:40:00 11.8 C 10.1 g/m*3 11.8 C 0 km/h
922 21-06-2020 04:45:00 11.8 C 10.1 g/m*3 11.8 C 0 km/h
923 21-06-2020 04:50:00 11.8 C 10 g/m*3 11.8 C 0 km/h
924 21-06-2020 04:55:00 11.8 C 10.1 g/m*3 11.8 C 0 km/h
925 21-06-2020 05:00:00 11.9 C 10.17 g/m*3 11.9 C 0 km/h
Sensor: Nr:Datum:Temp:Abs-Feuchte:Windchill:Wind:
Aussen-T/F 926 21-06-2020 05:05:00 11.9 C 10.17 g/m*3 11.9 C 0 km/h
927 21-06-2020 05:10:00 12.1 C 10.29 g/m*3 12.1 C 0 km/h
928 21-06-2020 05:15:00 12.1 C 10.29 g/m*3 12.1 C 4.8 km/h
929 21-06-2020 05:20:00 12.3 C 10.42 g/m*3 12.3 C 4.8 km/h
930 21-06-2020 05:25:00 12.3 C 10.42 g/m*3 12.3 C 0 km/h
931 21-06-2020 05:30:00 12.3 C 10.42 g/m*3 12.3 C 0 km/h
932 21-06-2020 05:35:00 12.3 C 10.42 g/m*3 12.3 C 0 km/h
933 21-06-2020 05:40:00 12.3 C 10.42 g/m*3 12.3 C 0 km/h
934 21-06-2020 05:45:00 12.3 C 10.42 g/m*3 12.3 C 1.6 km/h
935 21-06-2020 05:50:00 12.3 C 10.42 g/m*3 12.3 C 0 km/h
936 21-06-2020 05:55:00 12.3 C 10.42 g/m*3 12.3 C 0 km/h
937 21-06-2020 06:00:00 12.3 C 10.42 g/m*3 12.3 C 0 km/h
938 21-06-2020 06:05:00 12.2 C 10.36 g/m*3 12.2 C 0 km/h
939 21-06-2020 06:10:00 12.2 C 10.36 g/m*3 12.2 C 0 km/h
940 21-06-2020 06:15:00 12.3 C 10.42 g/m*3 12.3 C 0 km/h
941 21-06-2020 06:20:00 12.3 C 10.42 g/m*3 12.3 C 0 km/h
942 21-06-2020 06:25:00 12.3 C 10.42 g/m*3 12.3 C 0 km/h
943 21-06-2020 06:30:00 12.4 C 10.49 g/m*3 12.4 C 0 km/h
944 21-06-2020 06:35:00 12.4 C 10.49 g/m*3 12.4 C 0 km/h
945 21-06-2020 06:40:00 12.4 C 10.49 g/m*3 12.4 C 0 km/h
946 21-06-2020 06:45:00 12.4 C 10.6 g/m*3 12.4 C 0 km/h
947 21-06-2020 06:50:00 12.6 C 10.62 g/m*3 12.6 C 0 km/h
948 21-06-2020 06:55:00 12.6 C 10.62 g/m*3 12.6 C 3.2 km/h
949 21-06-2020 07:00:00 12.6 C 10.62 g/m*3 12.6 C 4.8 km/h
950 21-06-2020 07:05:00 12.6 C 10.62 g/m*3 12.6 C 1.6 km/h
Sensor: Nr:Datum:Temp:Abs-Feuchte:Windchill:Wind:
Aussen-T/F 951 21-06-2020 07:10:00 12.6 C 10.62 g/m*3 12.6 C 1.6 km/h
952 21-06-2020 07:15:00 12.7 C 10.8 g/m*3 12.7 C 3.2 km/h
953 21-06-2020 07:20:00 12.7 C 10.8 g/m*3 12.7 C 4.8 km/h
954 21-06-2020 07:25:00 12.7 C 10.69 g/m*3 12.7 C 6.4 km/h
955 21-06-2020 07:30:00 12.7 C 10.69 g/m*3 12.7 C 6.4 km/h
956 21-06-2020 07:35:00 12.7 C 10.69 g/m*3 12.7 C 6.4 km/h
957 21-06-2020 07:40:00 12.7 C 10.8 g/m*3 12.7 C 1.6 km/h
958 21-06-2020 07:45:00 12.8 C 10.87 g/m*3 12.8 C 6.4 km/h
959 21-06-2020 07:50:00 12.8 C 10.87 g/m*3 12.8 C 4.8 km/h
960 21-06-2020 07:55:00 12.8 C 10.87 g/m*3 12.8 C 3.2 km/h
961 21-06-2020 08:00:00 12.9 C 10.93 g/m*3 12.9 C 3.2 km/h
962 21-06-2020 08:05:00 13 C 11 g/m*3 13 C 4.8 km/h
963 21-06-2020 08:10:00 13.1 C 11.07 g/m*3 13.1 C 4.8 km/h
964 21-06-2020 08:15:00 13.1 C 11.07 g/m*3 13.1 C 4.8 km/h
965 21-06-2020 08:20:00 13.2 C 11.14 g/m*3 13.2 C 1.6 km/h
966 21-06-2020 08:25:00 13.3 C 11.21 g/m*3 13.3 C 1.6 km/h
967 21-06-2020 08:30:00 13.3 C 11.21 g/m*3 13.3 C 1.6 km/h
968 21-06-2020 08:35:00 13.4 C 11.28 g/m*3 13.4 C 0 km/h
969 21-06-2020 08:40:00 13.6 C 11.42 g/m*3 13.6 C 3.2 km/h
970 21-06-2020 08:45:00 13.7 C 11.49 g/m*3 13.7 C 0 km/h
971 21-06-2020 08:50:00 13.7 C 11.37 g/m*3 13.7 C 0 km/h
972 21-06-2020 08:55:00 13.7 C 11.37 g/m*3 13.7 C 0 km/h
973 21-06-2020 09:00:00 13.8 C 11.44 g/m*3 13.8 C 0 km/h
974 21-06-2020 09:05:00 13.8 C 11.44 g/m*3 13.8 C 0 km/h
975 21-06-2020 09:10:00 13.9 C 11.51 g/m*3 13.9 C 0 km/h
Sensor: Nr:Datum:Temp:Abs-Feuchte:Windchill:Wind:
Aussen-T/F 976 21-06-2020 09:15:00 14 C 11.58 g/m*3 14 C 0 km/h
977 21-06-2020 09:20:00 14.2 C 11.72 g/m*3 14.2 C 0 km/h
978 21-06-2020 09:25:00 14.3 C 11.79 g/m*3 14.3 C 0 km/h
979 21-06-2020 09:30:00 14.4 C 11.87 g/m*3 14.4 C 0 km/h
980 21-06-2020 09:35:00 14.6 C 12.01 g/m*3 14.6 C 0 km/h
981 21-06-2020 09:40:00 14.7 C 12.09 g/m*3 14.7 C 0 km/h
982 21-06-2020 09:45:00 14.9 C 12.24 g/m*3 14.9 C 0 km/h
983 21-06-2020 09:50:00 15.2 C 12.46 g/m*3 15.2 C 0 km/h
984 21-06-2020 09:55:00 15.3 C 12.54 g/m*3 15.3 C 0 km/h
985 21-06-2020 10:00:00 15.4 C 12.61 g/m*3 15.4 C 0 km/h
986 21-06-2020 10:05:00 15.6 C 12.63 g/m*3 15.6 C 0 km/h
987 21-06-2020 10:10:00 15.8 C 12.79 g/m*3 15.8 C 0 km/h
988 21-06-2020 10:15:00 15.9 C 12.87 g/m*3 15.9 C 0 km/h
989 21-06-2020 10:20:00 16.3 C 13.18 g/m*3 16.3 C 0 km/h
990 21-06-2020 10:25:00 16.6 C 13.28 g/m*3 16.6 C 0 km/h
991 21-06-2020 10:30:00 17.1 C 13.54 g/m*3 17.1 C 0 km/h
992 21-06-2020 10:35:00 17.6 C 13.8 g/m*3 17.6 C 0 km/h
993 21-06-2020 10:40:00 18 C 13.98 g/m*3 18 C 0 km/h
994 21-06-2020 10:45:00 18.4 C 13.84 g/m*3 18.4 C 0 km/h
995 21-06-2020 10:50:00 18.8 C 13.69 g/m*3 18.8 C 0 km/h
996 21-06-2020 10:55:00 19.1 C 13.93 g/m*3 19.1 C 0 km/h
997 21-06-2020 11:00:00 19.4 C 14.01 g/m*3 19.4 C 0 km/h
998 21-06-2020 11:05:00 19.7 C 13.75 g/m*3 19.7 C 0 km/h
999 21-06-2020 11:10:00 20.1 C 13.56 g/m*3 20.1 C 0 km/h
1000 21-06-2020 11:15:00 20.6 C 12.71 g/m*3 20.6 C 0 km/h
Sensor: Nr:Datum:Temp:Abs-Feuchte:Windchill:Wind:
Aussen-T/F 1001 21-06-2020 11:20:00 21.1 C 13.27 g/m*3 21.1 C 0 km/h
1002 21-06-2020 11:25:00 21.4 C 12.94 g/m*3 21.4 C 0 km/h
1003 21-06-2020 11:30:00 21.6 C 12.52 g/m*3 21.6 C 0 km/h
1004 21-06-2020 11:35:00 21.7 C 12.21 g/m*3 21.7 C 0 km/h
1005 21-06-2020 11:40:00 21.9 C 12.35 g/m*3 21.9 C 0 km/h
1006 21-06-2020 11:45:00 22.3 C 12.24 g/m*3 22.3 C 0 km/h
1007 21-06-2020 11:50:00 22.5 C 11.58 g/m*3 22.5 C 6.4 km/h
1008 21-06-2020 11:55:00 22.7 C 12.12 g/m*3 22.7 C 6.4 km/h
1009 21-06-2020 12:00:00 22.7 C 12.32 g/m*3 22.7 C 1.6 km/h
1010 21-06-2020 12:05:00 22.6 C 12.86 g/m*3 22.6 C 8.1 km/h
1011 21-06-2020 12:10:00 22.5 C 12.98 g/m*3 22.5 C 8.1 km/h
1012 21-06-2020 12:15:00 22.4 C 12.71 g/m*3 22.4 C 6.4 km/h
1013 21-06-2020 12:20:00 22.3 C 11.85 g/m*3 22.3 C 8.1 km/h
1014 21-06-2020 12:25:00 22.4 C 12.11 g/m*3 22.4 C 9.7 km/h
1015 21-06-2020 12:30:00 22.6 C 11.85 g/m*3 22.6 C 12.9 km/h
1016 21-06-2020 12:35:00 22.7 C 11.11 g/m*3 22.7 C 9.7 km/h
1017 21-06-2020 12:40:00 22.7 C 10.91 g/m*3 22.7 C 8.1 km/h
1018 21-06-2020 12:45:00 22.8 C 10.97 g/m*3 22.8 C 9.7 km/h
1019 21-06-2020 12:50:00 22.9 C 11.04 g/m*3 22.9 C 11.3 km/h
1020 21-06-2020 12:55:00 23.1 C 11.37 g/m*3 23.1 C 9.7 km/h
1021 21-06-2020 13:00:00 23.3 C 10.87 g/m*3 23.3 C 8.1 km/h
1022 21-06-2020 13:05:00 23.3 C 10.87 g/m*3 23.3 C 9.7 km/h
1023 21-06-2020 13:10:00 23.3 C 12.55 g/m*3 23.3 C 6.4 km/h
1024 21-06-2020 13:15:00 23.3 C 11.29 g/m*3 23.3 C 6.4 km/h
1025 21-06-2020 13:20:00 23.4 C 11.14 g/m*3 23.4 C 9.7 km/h
Sensor: Nr:Datum:Temp:Abs-Feuchte:Windchill:Wind:
Aussen-T/F 1026 21-06-2020 13:25:00 23.6 C 11.27 g/m*3 23.6 C 8.1 km/h
1027 21-06-2020 13:30:00 23.7 C 11.34 g/m*3 23.7 C 9.7 km/h
1028 21-06-2020 13:35:00 23.8 C 11.62 g/m*3 23.8 C 6.4 km/h
1029 21-06-2020 13:40:00 23.9 C 12.11 g/m*3 23.9 C 8.1 km/h
1030 21-06-2020 13:45:00 24.1 C 11.82 g/m*3 24.1 C 11.3 km/h
1031 21-06-2020 13:50:00 24.1 C 11.16 g/m*3 24.1 C 9.7 km/h
1032 21-06-2020 13:55:00 24.1 C 11.38 g/m*3 24.1 C 9.7 km/h
1033 21-06-2020 14:00:00 24.1 C 11.38 g/m*3 24.1 C 6.4 km/h
1034 21-06-2020 14:05:00 24.2 C 12.1 g/m*3 24.2 C 12.9 km/h
1035 21-06-2020 14:10:00 24.3 C 11.51 g/m*3 24.3 C 16.1 km/h
1036 21-06-2020 14:15:00 24.2 C 11.44 g/m*3 24.2 C 6.4 km/h
1037 21-06-2020 14:20:00 24.2 C 12.32 g/m*3 24.2 C 6.4 km/h
1038 21-06-2020 14:25:00 24.3 C 11.95 g/m*3 24.3 C 9.7 km/h
1039 21-06-2020 14:30:00 24.6 C 11.7 g/m*3 24.6 C 11.3 km/h
1040 21-06-2020 14:35:00 24.7 C 12.22 g/m*3 24.7 C 8.1 km/h
1041 21-06-2020 14:40:00 24.8 C 11.84 g/m*3 24.8 C 14.5 km/h
1042 21-06-2020 14:45:00 24.9 C 10.99 g/m*3 24.9 C 9.7 km/h
1043 21-06-2020 14:50:00 25.1 C 11.11 g/m*3 25.1 C 12.9 km/h
1044 21-06-2020 14:55:00 25.2 C 11.17 g/m*3 25.2 C 9.7 km/h
1045 21-06-2020 15:00:00 25.3 C 11 g/m*3 25.3 C 12.9 km/h
1046 21-06-2020 15:05:00 25.6 C 11.43 g/m*3 25.6 C 11.3 km/h
1047 21-06-2020 15:10:00 25.9 C 11.14 g/m*3 25.9 C 9.7 km/h
1048 21-06-2020 15:15:00 26.1 C 11.75 g/m*3 26.1 C 16.1 km/h
1049 21-06-2020 15:20:00 26 C 11.2 g/m*3 26 C 11.3 km/h
1050 21-06-2020 15:25:00 25.9 C 11.62 g/m*3 25.9 C 9.7 km/h
Sensor: Nr:Datum:Temp:Abs-Feuchte:Windchill:Wind:
Aussen-T/F 1051 21-06-2020 15:30:00 26.2 C 11.08 g/m*3 26.2 C 11.3 km/h
1052 21-06-2020 15:35:00 26.4 C 11.95 g/m*3 26.4 C 9.7 km/h
1053 21-06-2020 15:40:00 26.8 C 11.96 g/m*3 26.8 C 9.7 km/h
1054 21-06-2020 15:45:00 27.1 C 11.9 g/m*3 27.1 C 8.1 km/h
1055 21-06-2020 15:50:00 27.3 C 12.3 g/m*3 27.3 C 8.1 km/h
1056 21-06-2020 15:55:00 27.3 C 11.77 g/m*3 27.3 C 16.1 km/h
1057 21-06-2020 16:00:00 27.3 C 11.77 g/m*3 27.3 C 6.4 km/h
1058 21-06-2020 16:05:00 27.5 C 11.64 g/m*3 27.5 C 9.7 km/h
1059 21-06-2020 16:10:00 27.6 C 11.71 g/m*3 27.6 C 12.9 km/h
1060 21-06-2020 16:15:00 27.5 C 11.64 g/m*3 27.5 C 14.5 km/h
1061 21-06-2020 16:20:00 27.8 C 11.3 g/m*3 27.8 C 6.4 km/h
1062 21-06-2020 16:25:00 27.9 C 11.09 g/m*3 27.9 C 11.3 km/h
1063 21-06-2020 16:30:00 28.2 C 11.27 g/m*3 28.2 C 17.7 km/h
1064 21-06-2020 16:35:00 27.9 C 10.82 g/m*3 27.9 C 17.7 km/h
1065 21-06-2020 16:40:00 27.7 C 10.97 g/m*3 27.7 C 9.7 km/h
1066 21-06-2020 16:45:00 27.7 C 11.5 g/m*3 27.7 C 17.7 km/h
1067 21-06-2020 16:50:00 27.6 C 11.44 g/m*3 27.6 C 19.3 km/h
1068 21-06-2020 16:55:00 27.7 C 11.23 g/m*3 27.7 C 16.1 km/h
1069 21-06-2020 17:00:00 27.8 C 11.57 g/m*3 27.8 C 14.5 km/h
1070 21-06-2020 17:05:00 28 C 11.69 g/m*3 28 C 11.3 km/h
1071 21-06-2020 17:10:00 28 C 11.15 g/m*3 28 C 17.7 km/h
1072 21-06-2020 17:15:00 27.7 C 10.97 g/m*3 27.7 C 17.7 km/h
1073 21-06-2020 17:20:00 27.8 C 10.76 g/m*3 27.8 C 14.5 km/h
1074 21-06-2020 17:25:00 27.9 C 10.55 g/m*3 27.9 C 12.9 km/h
1075 21-06-2020 17:30:00 27.9 C 10.82 g/m*3 27.9 C 11.3 km/h
Sensor: Nr:Datum:Temp:Abs-Feuchte:Windchill:Wind:
Aussen-T/F 1076 21-06-2020 17:35:00 28 C 10.88 g/m*3 28 C 12.9 km/h
1077 21-06-2020 17:40:00 28.1 C 10.66 g/m*3 28.1 C 11.3 km/h
1078 21-06-2020 17:45:00 27.9 C 10.82 g/m*3 27.9 C 11.3 km/h
1079 21-06-2020 17:50:00 27.7 C 10.7 g/m*3 27.7 C 11.3 km/h
1080 21-06-2020 17:55:00 27.4 C 11.58 g/m*3 27.4 C 11.3 km/h
1081 21-06-2020 18:00:00 27.3 C 11.51 g/m*3 27.3 C 9.7 km/h
1082 21-06-2020 18:05:00 27 C 11.07 g/m*3 27 C 11.3 km/h
1083 21-06-2020 18:10:00 26.7 C 11.39 g/m*3 26.7 C 14.5 km/h
1084 21-06-2020 18:15:00 26.4 C 11.2 g/m*3 26.4 C 12.9 km/h
1085 21-06-2020 18:20:00 26.3 C 11.39 g/m*3 26.3 C 8.1 km/h
1086 21-06-2020 18:25:00 26.6 C 11.58 g/m*3 26.6 C 6.4 km/h
1087 21-06-2020 18:30:00 27.2 C 11.71 g/m*3 27.2 C 9.7 km/h
1088 21-06-2020 18:35:00 27.3 C 11.51 g/m*3 27.3 C 12.9 km/h
1089 21-06-2020 18:40:00 26.8 C 11.71 g/m*3 26.8 C 11.3 km/h
1090 21-06-2020 18:45:00 26.8 C 11.96 g/m*3 26.8 C 11.3 km/h
1091 21-06-2020 18:50:00 26.8 C 11.96 g/m*3 26.8 C 9.7 km/h
1092 21-06-2020 18:55:00 26.9 C 11.77 g/m*3 26.9 C 11.3 km/h
1093 21-06-2020 19:00:00 27 C 11.84 g/m*3 27 C 11.3 km/h
1094 21-06-2020 19:05:00 27.3 C 12.04 g/m*3 27.3 C 9.7 km/h
1095 21-06-2020 19:10:00 27.3 C 12.04 g/m*3 27.3 C 12.9 km/h
1096 21-06-2020 19:15:00 26.7 C 12.15 g/m*3 26.7 C 9.7 km/h
1097 21-06-2020 19:20:00 26.1 C 12.73 g/m*3 26.1 C 8.1 km/h
1098 21-06-2020 19:25:00 25.8 C 12.76 g/m*3 25.8 C 8.1 km/h
1099 21-06-2020 19:30:00 25.5 C 12.78 g/m*3 25.5 C 3.2 km/h
1100 21-06-2020 19:35:00 25.2 C 12.8 g/m*3 25.2 C 8.1 km/h
Sensor: Nr:Datum:Temp:Abs-Feuchte:Windchill:Wind:
Aussen-T/F 1101 21-06-2020 19:40:00 25 C 12.66 g/m*3 25 C 3.2 km/h
1102 21-06-2020 19:45:00 24.7 C 13.58 g/m*3 24.7 C 0 km/h
1103 21-06-2020 19:50:00 24.6 C 14.18 g/m*3 24.6 C 1.6 km/h
1104 21-06-2020 19:55:00 24.3 C 12.61 g/m*3 24.3 C 8.1 km/h
1105 21-06-2020 20:00:00 24.2 C 13.86 g/m*3 24.2 C 3.2 km/h
1106 21-06-2020 20:05:00 24.2 C 13.86 g/m*3 24.2 C 4.8 km/h
1107 21-06-2020 20:10:00 24.2 C 14.3 g/m*3 24.2 C 0 km/h
1108 21-06-2020 20:15:00 24.1 C 14 g/m*3 24.1 C 6.4 km/h
1109 21-06-2020 20:20:00 23.9 C 13.63 g/m*3 23.9 C 1.6 km/h
1110 21-06-2020 20:25:00 23.8 C 13.77 g/m*3 23.8 C 1.6 km/h
1111 21-06-2020 20:30:00 23.7 C 13.9 g/m*3 23.7 C 3.2 km/h
1112 21-06-2020 20:35:00 23.6 C 13.82 g/m*3 23.6 C 4.8 km/h
1113 21-06-2020 20:40:00 23.4 C 14.09 g/m*3 23.4 C 3.2 km/h
1114 21-06-2020 20:45:00 23.2 C 13.93 g/m*3 23.2 C 4.8 km/h
1115 21-06-2020 20:50:00 22.9 C 13.69 g/m*3 22.9 C 4.8 km/h
1116 21-06-2020 20:55:00 22.6 C 13.46 g/m*3 22.6 C 4.8 km/h
1117 21-06-2020 21:00:00 22.4 C 13.31 g/m*3 22.4 C 4.8 km/h
1118 21-06-2020 21:05:00 22.4 C 13.5 g/m*3 22.4 C 4.8 km/h
1119 21-06-2020 21:10:00 22.4 C 13.11 g/m*3 22.4 C 6.4 km/h
1120 21-06-2020 21:15:00 22.5 C 12.18 g/m*3 22.5 C 8.1 km/h
1121 21-06-2020 21:20:00 22.6 C 12.46 g/m*3 22.6 C 1.6 km/h
1122 21-06-2020 21:25:00 22.6 C 13.06 g/m*3 22.6 C 1.6 km/h
1123 21-06-2020 21:30:00 22.5 C 13.18 g/m*3 22.5 C 3.2 km/h
1124 21-06-2020 21:35:00 22.3 C 13.23 g/m*3 22.3 C 0 km/h
1125 21-06-2020 21:40:00 22 C 13 g/m*3 22 C 4.8 km/h
Sensor: Nr:Datum:Temp:Abs-Feuchte:Windchill:Wind:
Aussen-T/F 1126 21-06-2020 21:45:00 21.7 C 13.16 g/m*3 21.7 C 4.8 km/h
1127 21-06-2020 21:50:00 21.4 C 12.94 g/m*3 21.4 C 6.4 km/h
1128 21-06-2020 21:55:00 20.9 C 12.75 g/m*3 20.9 C 6.4 km/h
1129 21-06-2020 22:00:00 20.6 C 12.89 g/m*3 20.6 C 4.8 km/h
1130 21-06-2020 22:05:00 20.2 C 12.76 g/m*3 20.2 C 4.8 km/h
1131 21-06-2020 22:10:00 19.9 C 12.71 g/m*3 19.9 C 4.8 km/h
1132 21-06-2020 22:15:00 19.6 C 12.49 g/m*3 19.6 C 4.8 km/h
1133 21-06-2020 22:20:00 19.3 C 12.44 g/m*3 19.3 C 4.8 km/h
1134 21-06-2020 22:25:00 19.1 C 12.46 g/m*3 19.1 C 4.8 km/h
1135 21-06-2020 22:30:00 18.9 C 12.31 g/m*3 18.9 C 6.4 km/h
1136 21-06-2020 22:35:00 18.7 C 12.33 g/m*3 18.7 C 6.4 km/h
1137 21-06-2020 22:40:00 18.5 C 12.18 g/m*3 18.5 C 4.8 km/h
1138 21-06-2020 22:45:00 18.3 C 12.2 g/m*3 18.3 C 6.4 km/h
1139 21-06-2020 22:50:00 18.2 C 12.28 g/m*3 18.2 C 4.8 km/h
1140 21-06-2020 22:55:00 18.1 C 12.21 g/m*3 18.1 C 4.8 km/h
1141 21-06-2020 23:00:00 18.1 C 12.36 g/m*3 18.1 C 4.8 km/h
1142 21-06-2020 23:05:00 18 C 12.44 g/m*3 18 C 4.8 km/h
1143 21-06-2020 23:10:00 17.9 C 12.37 g/m*3 17.9 C 4.8 km/h
1144 21-06-2020 23:15:00 17.9 C 12.37 g/m*3 17.9 C 3.2 km/h
1145 21-06-2020 23:20:00 17.9 C 12.52 g/m*3 17.9 C 4.8 km/h
1146 21-06-2020 23:25:00 17.8 C 12.45 g/m*3 17.8 C 4.8 km/h
1147 21-06-2020 23:30:00 17.8 C 12.45 g/m*3 17.8 C 3.2 km/h
1148 21-06-2020 23:35:00 17.7 C 12.37 g/m*3 17.7 C 3.2 km/h
1149 21-06-2020 23:40:00 17.7 C 12.52 g/m*3 17.7 C 1.6 km/h
1150 21-06-2020 23:45:00 17.6 C 12.45 g/m*3 17.6 C 0 km/h
Sensor: Nr:Datum:Temp:Abs-Feuchte:Windchill:Wind:
Aussen-T/F 1151 21-06-2020 23:50:00 17.6 C 12.45 g/m*3 17.6 C 0 km/h
1152 21-06-2020 23:55:00 17.6 C 12.6 g/m*3 17.6 C 0 km/h
1153 22-06-2020 00:00:00 17.7 C 12.82 g/m*3 17.7 C 0 km/h
1154 22-06-2020 00:05:00 17.7 C 12.67 g/m*3 17.7 C 0 km/h
1155 22-06-2020 00:10:00 17.7 C 12.67 g/m*3 17.7 C 0 km/h
1156 22-06-2020 00:15:00 17.7 C 12.67 g/m*3 17.7 C 0 km/h
1157 22-06-2020 00:20:00 17.6 C 12.6 g/m*3 17.6 C 0 km/h
1158 22-06-2020 00:25:00 17.5 C 12.37 g/m*3 17.5 C 0 km/h
1159 22-06-2020 00:30:00 17.4 C 12.3 g/m*3 17.4 C 0 km/h
1160 22-06-2020 00:35:00 17.3 C 12.37 g/m*3 17.3 C 0 km/h
1161 22-06-2020 00:40:00 17.2 C 12.3 g/m*3 17.2 C 0 km/h
1162 22-06-2020 00:45:00 17.1 C 12.37 g/m*3 17.1 C 0 km/h
1163 22-06-2020 00:50:00 16.9 C 12.23 g/m*3 16.9 C 0 km/h
1164 22-06-2020 00:55:00 16.8 C 12.15 g/m*3 16.8 C 0 km/h
1165 22-06-2020 01:00:00 16.7 C 12.08 g/m*3 16.7 C 0 km/h
1166 22-06-2020 01:05:00 16.6 C 12.15 g/m*3 16.6 C 0 km/h
1167 22-06-2020 01:10:00 16.5 C 12.08 g/m*3 16.5 C 4.8 km/h
1168 22-06-2020 01:15:00 16.4 C 12 g/m*3 16.4 C 6.4 km/h
1169 22-06-2020 01:20:00 16.5 C 12.08 g/m*3 16.5 C 3.2 km/h
1170 22-06-2020 01:25:00 16.6 C 12.15 g/m*3 16.6 C 1.6 km/h
1171 22-06-2020 01:30:00 16.7 C 12.22 g/m*3 16.7 C 4.8 km/h
1172 22-06-2020 01:35:00 16.8 C 12.15 g/m*3 16.8 C 0 km/h
1173 22-06-2020 01:40:00 16.7 C 12.08 g/m*3 16.7 C 6.4 km/h
1174 22-06-2020 01:45:00 16.6 C 12.01 g/m*3 16.6 C 4.8 km/h
1175 22-06-2020 01:50:00 16.5 C 12.08 g/m*3 16.5 C 6.4 km/h
Sensor: Nr:Datum:Temp:Abs-Feuchte:Windchill:Wind:
Aussen-T/F 1176 22-06-2020 01:55:00 16.4 C 12 g/m*3 16.4 C 4.8 km/h
1177 22-06-2020 02:00:00 16.3 C 12.07 g/m*3 16.3 C 4.8 km/h
1178 22-06-2020 02:05:00 16.3 C 12.07 g/m*3 16.3 C 6.4 km/h
1179 22-06-2020 02:10:00 16.2 C 12 g/m*3 16.2 C 6.4 km/h
1180 22-06-2020 02:15:00 16.2 C 12 g/m*3 16.2 C 4.8 km/h
1181 22-06-2020 02:20:00 16.2 C 12 g/m*3 16.2 C 3.2 km/h
1182 22-06-2020 02:25:00 16.2 C 12 g/m*3 16.2 C 1.6 km/h
1183 22-06-2020 02:30:00 16.2 C 12 g/m*3 16.2 C 0 km/h
1184 22-06-2020 02:35:00 16.1 C 11.93 g/m*3 16.1 C 0 km/h
1185 22-06-2020 02:40:00 16.1 C 11.93 g/m*3 16.1 C 1.6 km/h
1186 22-06-2020 02:45:00 15.9 C 11.78 g/m*3 15.9 C 0 km/h
1187 22-06-2020 02:50:00 15.8 C 11.71 g/m*3 15.8 C 0 km/h
1188 22-06-2020 02:55:00 15.7 C 11.77 g/m*3 15.7 C 0 km/h
1189 22-06-2020 03:00:00 15.6 C 11.7 g/m*3 15.6 C 1.6 km/h
1190 22-06-2020 03:05:00 15.6 C 11.7 g/m*3 15.6 C 1.6 km/h
1191 22-06-2020 03:10:00 15.5 C 11.63 g/m*3 15.5 C 0 km/h
1192 22-06-2020 03:15:00 15.4 C 11.69 g/m*3 15.4 C 0 km/h
1193 22-06-2020 03:20:00 15.4 C 11.69 g/m*3 15.4 C 0 km/h
1194 22-06-2020 03:25:00 15.3 C 11.62 g/m*3 15.3 C 0 km/h
1195 22-06-2020 03:30:00 15.3 C 11.62 g/m*3 15.3 C 0 km/h
1196 22-06-2020 03:35:00 15.3 C 11.75 g/m*3 15.3 C 1.6 km/h
1197 22-06-2020 03:40:00 15.4 C 11.82 g/m*3 15.4 C 3.2 km/h
1198 22-06-2020 03:45:00 15.5 C 11.9 g/m*3 15.5 C 3.2 km/h
1199 22-06-2020 03:50:00 15.6 C 11.84 g/m*3 15.6 C 1.6 km/h
1200 22-06-2020 03:55:00 15.6 C 11.84 g/m*3 15.6 C 3.2 km/h
Sensor: Nr:Datum:Temp:Abs-Feuchte:Windchill:Wind:
Aussen-T/F 1201 22-06-2020 04:00:00 15.6 C 11.84 g/m*3 15.6 C 0 km/h
1202 22-06-2020 04:05:00 15.7 C 11.91 g/m*3 15.7 C 0 km/h
1203 22-06-2020 04:10:00 15.7 C 11.91 g/m*3 15.7 C 1.6 km/h
1204 22-06-2020 04:15:00 15.8 C 11.98 g/m*3 15.8 C 0 km/h
1205 22-06-2020 04:20:00 15.8 C 11.98 g/m*3 15.8 C 0 km/h
1206 22-06-2020 04:25:00 15.9 C 12.05 g/m*3 15.9 C 1.6 km/h
1207 22-06-2020 04:30:00 16.1 C 12.06 g/m*3 16.1 C 0 km/h
1208 22-06-2020 04:35:00 16.2 C 12.14 g/m*3 16.2 C 0 km/h
1209 22-06-2020 04:40:00 16.3 C 12.21 g/m*3 16.3 C 0 km/h
1210 22-06-2020 04:45:00 16.3 C 12.21 g/m*3 16.3 C 1.6 km/h
1211 22-06-2020 04:50:00 16.3 C 12.21 g/m*3 16.3 C 0 km/h
1212 22-06-2020 04:55:00 16.4 C 12.14 g/m*3 16.4 C 4.8 km/h
1213 22-06-2020 05:00:00 16.5 C 12.08 g/m*3 16.5 C 4.8 km/h
1214 22-06-2020 05:05:00 16.6 C 12.29 g/m*3 16.6 C 1.6 km/h
1215 22-06-2020 05:10:00 16.7 C 12.36 g/m*3 16.7 C 0 km/h
1216 22-06-2020 05:15:00 16.7 C 12.36 g/m*3 16.7 C 6.4 km/h
1217 22-06-2020 05:20:00 16.8 C 12.3 g/m*3 16.8 C 9.7 km/h
1218 22-06-2020 05:25:00 16.8 C 12.01 g/m*3 16.8 C 8.1 km/h
1219 22-06-2020 05:30:00 16.8 C 11.87 g/m*3 16.8 C 11.3 km/h
1220 22-06-2020 05:35:00 16.6 C 11.72 g/m*3 16.6 C 14.5 km/h
1221 22-06-2020 05:40:00 16.3 C 11.52 g/m*3 16.3 C 17.7 km/h
1222 22-06-2020 05:45:00 16.1 C 11.51 g/m*3 16.1 C 17.7 km/h
1223 22-06-2020 05:50:00 15.9 C 11.38 g/m*3 15.9 C 12.9 km/h
1224 22-06-2020 05:55:00 15.8 C 11.31 g/m*3 15.8 C 12.9 km/h
1225 22-06-2020 06:00:00 15.7 C 11.24 g/m*3 15.7 C 12.9 km/h
Sensor: Nr:Datum:Temp:Abs-Feuchte:Windchill:Wind:
Aussen-T/F 1226 22-06-2020 06:05:00 15.7 C 11.37 g/m*3 15.7 C 1.6 km/h
1227 22-06-2020 06:10:00 15.7 C 11.37 g/m*3 15.7 C 4.8 km/h
1228 22-06-2020 06:15:00 15.7 C 11.51 g/m*3 15.7 C 3.2 km/h
1229 22-06-2020 06:20:00 15.6 C 11.3 g/m*3 15.6 C 6.4 km/h
1230 22-06-2020 06:25:00 15.6 C 11.3 g/m*3 15.6 C 6.4 km/h
1231 22-06-2020 06:30:00 15.5 C 11.24 g/m*3 15.5 C 4.8 km/h
1232 22-06-2020 06:35:00 15.4 C 11.17 g/m*3 15.4 C 3.2 km/h
1233 22-06-2020 06:40:00 15.4 C 11.17 g/m*3 15.4 C 6.4 km/h
1234 22-06-2020 06:45:00 15.4 C 11.3 g/m*3 15.4 C 4.8 km/h
1235 22-06-2020 06:50:00 15.4 C 11.17 g/m*3 15.4 C 3.2 km/h
1236 22-06-2020 06:55:00 15.3 C 11.23 g/m*3 15.3 C 3.2 km/h
1237 22-06-2020 07:00:00 15.3 C 11.1 g/m*3 15.3 C 1.6 km/h
1238 22-06-2020 07:05:00 15.3 C 11.1 g/m*3 15.3 C 1.6 km/h
1239 22-06-2020 07:10:00 15.3 C 11.1 g/m*3 15.3 C 9.7 km/h
1240 22-06-2020 07:15:00 15.3 C 11.1 g/m*3 15.3 C 1.6 km/h
1241 22-06-2020 07:20:00 15.3 C 11.1 g/m*3 15.3 C 1.6 km/h
1242 22-06-2020 07:25:00 15.3 C 11.1 g/m*3 15.3 C 0 km/h
1243 22-06-2020 07:30:00 15.3 C 11.1 g/m*3 15.3 C 4.8 km/h
1244 22-06-2020 07:35:00 15.3 C 11.1 g/m*3 15.3 C 8.1 km/h
1245 22-06-2020 07:40:00 15.3 C 10.97 g/m*3 15.3 C 8.1 km/h
1246 22-06-2020 07:45:00 15.3 C 10.97 g/m*3 15.3 C 6.4 km/h
1247 22-06-2020 07:50:00 15.3 C 10.97 g/m*3 15.3 C 11.3 km/h
1248 22-06-2020 07:55:00 15.2 C 11.03 g/m*3 15.2 C 9.7 km/h
1249 22-06-2020 08:00:00 15.2 C 11.16 g/m*3 15.2 C 3.2 km/h
1250 22-06-2020 08:05:00 15.2 C 11.03 g/m*3 15.2 C 3.2 km/h
Sensor: Nr:Datum:Temp:Abs-Feuchte:Windchill:Wind:
Aussen-T/F 1251 22-06-2020 08:10:00 15.1 C 10.97 g/m*3 15.1 C 6.4 km/h
1252 22-06-2020 08:15:00 15.2 C 11.03 g/m*3 15.2 C 8.1 km/h
1253 22-06-2020 08:20:00 15.2 C 11.03 g/m*3 15.2 C 8.1 km/h
1254 22-06-2020 08:25:00 15.2 C 11.03 g/m*3 15.2 C 4.8 km/h
1255 22-06-2020 08:30:00 15.2 C 11.16 g/m*3 15.2 C 6.4 km/h
1256 22-06-2020 08:35:00 15.3 C 11.23 g/m*3 15.3 C 1.6 km/h
1257 22-06-2020 08:40:00 15.3 C 11.23 g/m*3 15.3 C 3.2 km/h
1258 22-06-2020 08:45:00 15.3 C 11.1 g/m*3 15.3 C 4.8 km/h
1259 22-06-2020 08:50:00 15.3 C 11.1 g/m*3 15.3 C 1.6 km/h
1260 22-06-2020 08:55:00 15.4 C 11.3 g/m*3 15.4 C 1.6 km/h
1261 22-06-2020 09:00:00 15.6 C 11.44 g/m*3 15.6 C 4.8 km/h
1262 22-06-2020 09:05:00 15.7 C 11.51 g/m*3 15.7 C 0 km/h
1263 22-06-2020 09:10:00 15.8 C 11.44 g/m*3 15.8 C 3.2 km/h
1264 22-06-2020 09:15:00 15.9 C 11.38 g/m*3 15.9 C 1.6 km/h
1265 22-06-2020 09:20:00 16.1 C 11.51 g/m*3 16.1 C 3.2 km/h
1266 22-06-2020 09:25:00 16.2 C 11.45 g/m*3 16.2 C 8.1 km/h
1267 22-06-2020 09:30:00 16.2 C 11.45 g/m*3 16.2 C 4.8 km/h
1268 22-06-2020 09:35:00 16.3 C 11.38 g/m*3 16.3 C 6.4 km/h
1269 22-06-2020 09:40:00 16.4 C 11.45 g/m*3 16.4 C 3.2 km/h
1270 22-06-2020 09:45:00 16.6 C 11.44 g/m*3 16.6 C 6.4 km/h
1271 22-06-2020 09:50:00 16.6 C 11.58 g/m*3 16.6 C 6.4 km/h
1272 22-06-2020 09:55:00 16.7 C 11.51 g/m*3 16.7 C 6.4 km/h
1273 22-06-2020 10:00:00 16.7 C 11.51 g/m*3 16.7 C 6.4 km/h
1274 22-06-2020 10:05:00 16.7 C 11.51 g/m*3 16.7 C 8.1 km/h
1275 22-06-2020 10:10:00 16.7 C 11.51 g/m*3 16.7 C 8.1 km/h
Sensor: Nr:Datum:Temp:Abs-Feuchte:Windchill:Wind:
Aussen-T/F 1276 22-06-2020 10:15:00 16.7 C 11.51 g/m*3 16.7 C 8.1 km/h
1277 22-06-2020 10:20:00 16.8 C 11.58 g/m*3 16.8 C 8.1 km/h
1278 22-06-2020 10:25:00 16.8 C 11.58 g/m*3 16.8 C 6.4 km/h
1279 22-06-2020 10:30:00 16.9 C 11.65 g/m*3 16.9 C 6.4 km/h
1280 22-06-2020 10:35:00 16.9 C 11.65 g/m*3 16.9 C 4.8 km/h
1281 22-06-2020 10:40:00 17.1 C 11.79 g/m*3 17.1 C 6.4 km/h
1282 22-06-2020 10:45:00 17.1 C 11.79 g/m*3 17.1 C 9.7 km/h
1283 22-06-2020 10:50:00 17.2 C 11.86 g/m*3 17.2 C 4.8 km/h
1284 22-06-2020 10:55:00 17.3 C 11.79 g/m*3 17.3 C 8.1 km/h
1285 22-06-2020 11:00:00 17.3 C 11.93 g/m*3 17.3 C 8.1 km/h
1286 22-06-2020 11:05:00 17.4 C 12 g/m*3 17.4 C 4.8 km/h
1287 22-06-2020 11:10:00 17.4 C 11.86 g/m*3 17.4 C 6.4 km/h
1288 22-06-2020 11:15:00 17.4 C 12 g/m*3 17.4 C 4.8 km/h
1289 22-06-2020 11:20:00 17.5 C 12.08 g/m*3 17.5 C 6.4 km/h
1290 22-06-2020 11:25:00 17.6 C 12 g/m*3 17.6 C 8.1 km/h
1291 22-06-2020 11:30:00 17.6 C 12 g/m*3 17.6 C 11.3 km/h
1292 22-06-2020 11:35:00 17.6 C 12 g/m*3 17.6 C 3.2 km/h
1293 22-06-2020 11:40:00 17.7 C 12.07 g/m*3 17.7 C 4.8 km/h
1294 22-06-2020 11:45:00 17.8 C 11.99 g/m*3 17.8 C 6.4 km/h
1295 22-06-2020 11:50:00 17.9 C 12.06 g/m*3 17.9 C 4.8 km/h
1296 22-06-2020 11:55:00 17.9 C 12.06 g/m*3 17.9 C 9.7 km/h
1297 22-06-2020 12:00:00 18.1 C 12.21 g/m*3 18.1 C 6.4 km/h
1298 22-06-2020 12:05:00 18.2 C 12.12 g/m*3 18.2 C 4.8 km/h
1299 22-06-2020 12:10:00 18.3 C 12.2 g/m*3 18.3 C 6.4 km/h
1300 22-06-2020 12:15:00 18.3 C 12.04 g/m*3 18.3 C 4.8 km/h
Sensor: Nr:Datum:Temp:Abs-Feuchte:Windchill:Wind:
Aussen-T/F 1301 22-06-2020 12:20:00 18.4 C 12.27 g/m*3 18.4 C 3.2 km/h
1302 22-06-2020 12:25:00 18.5 C 12.18 g/m*3 18.5 C 4.8 km/h
1303 22-06-2020 12:30:00 18.6 C 12.26 g/m*3 18.6 C 4.8 km/h
1304 22-06-2020 12:35:00 18.7 C 12.49 g/m*3 18.7 C 9.7 km/h
1305 22-06-2020 12:40:00 18.8 C 12.4 g/m*3 18.8 C 6.4 km/h
1306 22-06-2020 12:45:00 19.1 C 12.62 g/m*3 19.1 C 8.1 km/h
1307 22-06-2020 12:50:00 19.2 C 12.37 g/m*3 19.2 C 6.4 km/h
1308 22-06-2020 12:55:00 19.3 C 12.61 g/m*3 19.3 C 4.8 km/h
1309 22-06-2020 13:00:00 19.6 C 12.66 g/m*3 19.6 C 8.1 km/h
1310 22-06-2020 13:05:00 19.7 C 12.57 g/m*3 19.7 C 4.8 km/h
1311 22-06-2020 13:10:00 19.8 C 12.64 g/m*3 19.8 C 6.4 km/h
1312 22-06-2020 13:15:00 19.8 C 12.81 g/m*3 19.8 C 4.8 km/h
1313 22-06-2020 13:20:00 19.9 C 12.89 g/m*3 19.9 C 6.4 km/h
1314 22-06-2020 13:25:00 19.9 C 12.71 g/m*3 19.9 C 3.2 km/h
1315 22-06-2020 13:30:00 19.8 C 12.64 g/m*3 19.8 C 11.3 km/h
1316 22-06-2020 13:35:00 19.8 C 12.64 g/m*3 19.8 C 11.3 km/h
1317 22-06-2020 13:40:00 19.8 C 12.47 g/m*3 19.8 C 9.7 km/h
1318 22-06-2020 13:45:00 19.8 C 12.64 g/m*3 19.8 C 12.9 km/h
1319 22-06-2020 13:50:00 19.9 C 12.54 g/m*3 19.9 C 9.7 km/h
1320 22-06-2020 13:55:00 20.1 C 12.86 g/m*3 20.1 C 8.1 km/h
1321 22-06-2020 14:00:00 20.2 C 12.41 g/m*3 20.2 C 9.7 km/h
1322 22-06-2020 14:05:00 20.3 C 12.66 g/m*3 20.3 C 8.1 km/h
1323 22-06-2020 14:10:00 20.6 C 12.53 g/m*3 20.6 C 12.9 km/h
1324 22-06-2020 14:15:00 20.8 C 12.67 g/m*3 20.8 C 12.9 km/h
1325 22-06-2020 14:20:00 21 C 12.46 g/m*3 21 C 12.9 km/h
Sensor: Nr:Datum:Temp:Abs-Feuchte:Windchill:Wind:
Aussen-T/F 1326 22-06-2020 14:25:00 21.2 C 12.42 g/m*3 21.2 C 11.3 km/h
1327 22-06-2020 14:30:00 21.3 C 12.49 g/m*3 21.3 C 9.7 km/h
1328 22-06-2020 14:35:00 21.3 C 12.49 g/m*3 21.3 C 11.3 km/h
1329 22-06-2020 14:40:00 21.6 C 12.71 g/m*3 21.6 C 8.1 km/h
1330 22-06-2020 14:45:00 21.8 C 12.66 g/m*3 21.8 C 8.1 km/h
1331 22-06-2020 14:50:00 21.8 C 12.47 g/m*3 21.8 C 8.1 km/h
1332 22-06-2020 14:55:00 21.9 C 12.93 g/m*3 21.9 C 6.4 km/h
1333 22-06-2020 15:00:00 22.4 C 12.71 g/m*3 22.4 C 9.7 km/h
1334 22-06-2020 15:05:00 22.5 C 12.58 g/m*3 22.5 C 9.7 km/h
1335 22-06-2020 15:10:00 22.5 C 12.78 g/m*3 22.5 C 6.4 km/h
1336 22-06-2020 15:15:00 22.7 C 12.32 g/m*3 22.7 C 9.7 km/h
1337 22-06-2020 15:20:00 22.7 C 12.32 g/m*3 22.7 C 12.9 km/h
1338 22-06-2020 15:25:00 22.7 C 12.32 g/m*3 22.7 C 8.1 km/h
1339 22-06-2020 15:30:00 23 C 12.13 g/m*3 23 C 9.7 km/h
1340 22-06-2020 15:35:00 23.3 C 12.55 g/m*3 23.3 C 8.1 km/h
1341 22-06-2020 15:40:00 23.8 C 12.48 g/m*3 23.8 C 9.7 km/h
1342 22-06-2020 15:45:00 23.7 C 12.19 g/m*3 23.7 C 11.3 km/h
1343 22-06-2020 15:50:00 23.4 C 11.78 g/m*3 23.4 C 12.9 km/h
1344 22-06-2020 15:55:00 22.9 C 11.65 g/m*3 22.9 C 9.7 km/h
1345 22-06-2020 16:00:00 22.8 C 11.79 g/m*3 22.8 C 6.4 km/h
1346 22-06-2020 16:05:00 22.7 C 11.92 g/m*3 22.7 C 9.7 km/h
1347 22-06-2020 16:10:00 22.7 C 12.12 g/m*3 22.7 C 8.1 km/h
1348 22-06-2020 16:15:00 23 C 11.92 g/m*3 23 C 8.1 km/h
1349 22-06-2020 16:20:00 23.1 C 11.99 g/m*3 23.1 C 9.7 km/h
1350 22-06-2020 16:25:00 23.4 C 11.99 g/m*3 23.4 C 14.5 km/h
Sensor: Nr:Datum:Temp:Abs-Feuchte:Windchill:Wind:
Aussen-T/F 1351 22-06-2020 16:30:00 23.4 C 12.2 g/m*3 23.4 C 9.7 km/h
1352 22-06-2020 16:35:00 23.3 C 11.92 g/m*3 23.3 C 11.3 km/h
1353 22-06-2020 16:40:00 22.9 C 11.65 g/m*3 22.9 C 9.7 km/h
1354 22-06-2020 16:45:00 23 C 11.72 g/m*3 23 C 0 km/h
1355 22-06-2020 16:50:00 23.5 C 11.84 g/m*3 23.5 C 6.4 km/h
1356 22-06-2020 16:55:00 23.9 C 11.03 g/m*3 23.9 C 11.3 km/h
1357 22-06-2020 17:00:00 23.8 C 10.76 g/m*3 23.8 C 9.7 km/h
1358 22-06-2020 17:05:00 23.8 C 10.76 g/m*3 23.8 C 12.9 km/h
1359 22-06-2020 17:10:00 24.1 C 10.72 g/m*3 24.1 C 9.7 km/h
1360 22-06-2020 17:15:00 24.4 C 10.9 g/m*3 24.4 C 9.7 km/h
1361 22-06-2020 17:20:00 24.8 C 10.47 g/m*3 24.8 C 9.7 km/h
1362 22-06-2020 17:25:00 25 C 10.13 g/m*3 25 C 6.4 km/h
1363 22-06-2020 17:30:00 25.1 C 10.19 g/m*3 25.1 C 11.3 km/h
1364 22-06-2020 17:35:00 24.7 C 9.73 g/m*3 24.7 C 12.9 km/h
1365 22-06-2020 17:40:00 24.5 C 9.18 g/m*3 24.5 C 11.3 km/h
1366 22-06-2020 17:45:00 24.6 C 9.45 g/m*3 24.6 C 11.3 km/h
1367 22-06-2020 17:50:00 24.8 C 9.33 g/m*3 24.8 C 6.4 km/h
1368 22-06-2020 17:55:00 25.1 C 9.95 g/m*3 25.1 C 6.4 km/h
1369 22-06-2020 18:00:00 25.3 C 9.6 g/m*3 25.3 C 11.3 km/h
1370 22-06-2020 18:05:00 25.2 C 9.31 g/m*3 25.2 C 14.5 km/h
1371 22-06-2020 18:10:00 24.9 C 8.93 g/m*3 24.9 C 6.4 km/h
1372 22-06-2020 18:15:00 25 C 9.21 g/m*3 25 C 11.3 km/h
1373 22-06-2020 18:20:00 24.9 C 8.93 g/m*3 24.9 C 9.7 km/h
1374 22-06-2020 18:25:00 24.9 C 8.93 g/m*3 24.9 C 11.3 km/h
1375 22-06-2020 18:30:00 25.1 C 8.57 g/m*3 25.1 C 8.1 km/h
Sensor: Nr:Datum:Temp:Abs-Feuchte:Windchill:Wind:
Aussen-T/F 1376 22-06-2020 18:35:00 25.2 C 8.85 g/m*3 25.2 C 4.8 km/h
1377 22-06-2020 18:40:00 25.1 C 9.26 g/m*3 25.1 C 11.3 km/h
1378 22-06-2020 18:45:00 25.1 C 9.49 g/m*3 25.1 C 11.3 km/h
1379 22-06-2020 18:50:00 25.2 C 9.54 g/m*3 25.2 C 8.1 km/h
1380 22-06-2020 18:55:00 25.3 C 9.36 g/m*3 25.3 C 9.7 km/h
1381 22-06-2020 19:00:00 25.2 C 9.31 g/m*3 25.2 C 11.3 km/h
1382 22-06-2020 19:05:00 25.1 C 9.72 g/m*3 25.1 C 12.9 km/h
1383 22-06-2020 19:10:00 25 C 9.44 g/m*3 25 C 4.8 km/h
1384 22-06-2020 19:15:00 25.1 C 9.72 g/m*3 25.1 C 6.4 km/h
1385 22-06-2020 19:20:00 25 C 9.44 g/m*3 25 C 9.7 km/h
1386 22-06-2020 19:25:00 24.8 C 9.33 g/m*3 24.8 C 6.4 km/h
1387 22-06-2020 19:30:00 24.7 C 9.96 g/m*3 24.7 C 4.8 km/h
1388 22-06-2020 19:35:00 24.6 C 9.68 g/m*3 24.6 C 6.4 km/h
1389 22-06-2020 19:40:00 24.5 C 9.62 g/m*3 24.5 C 6.4 km/h
1390 22-06-2020 19:45:00 24.4 C 9.57 g/m*3 24.4 C 6.4 km/h
1391 22-06-2020 19:50:00 24.3 C 9.74 g/m*3 24.3 C 3.2 km/h
1392 22-06-2020 19:55:00 24.2 C 9.24 g/m*3 24.2 C 4.8 km/h
1393 22-06-2020 20:00:00 24.2 C 9.68 g/m*3 24.2 C 3.2 km/h
1394 22-06-2020 20:05:00 24.2 C 9.68 g/m*3 24.2 C 6.4 km/h
1395 22-06-2020 20:10:00 24.1 C 9.85 g/m*3 24.1 C 3.2 km/h
1396 22-06-2020 20:15:00 24.1 C 9.63 g/m*3 24.1 C 3.2 km/h
1397 22-06-2020 20:20:00 23.9 C 9.74 g/m*3 23.9 C 3.2 km/h
1398 22-06-2020 20:25:00 23.8 C 9.68 g/m*3 23.8 C 4.8 km/h
1399 22-06-2020 20:30:00 23.8 C 9.46 g/m*3 23.8 C 3.2 km/h
1400 22-06-2020 20:35:00 23.8 C 9.68 g/m*3 23.8 C 3.2 km/h
Sensor: Nr:Datum:Temp:Abs-Feuchte:Windchill:Wind:
Aussen-T/F 1401 22-06-2020 20:40:00 23.7 C 9.63 g/m*3 23.7 C 6.4 km/h
1402 22-06-2020 20:45:00 23.6 C 9.57 g/m*3 23.6 C 3.2 km/h
1403 22-06-2020 20:50:00 23.5 C 9.73 g/m*3 23.5 C 0 km/h
1404 22-06-2020 20:55:00 23.3 C 9.83 g/m*3 23.3 C 3.2 km/h
1405 22-06-2020 21:00:00 23.2 C 9.56 g/m*3 23.2 C 1.6 km/h
1406 22-06-2020 21:05:00 22.9 C 11.65 g/m*3 22.9 C 0 km/h
1407 22-06-2020 21:10:00 22.7 C 10.51 g/m*3 22.7 C 0 km/h
1408 22-06-2020 21:15:00 22.3 C 11.26 g/m*3 22.3 C 3.2 km/h
1409 22-06-2020 21:20:00 21.8 C 10.36 g/m*3 21.8 C 1.6 km/h
1410 22-06-2020 21:25:00 21.3 C 11.18 g/m*3 21.3 C 1.6 km/h
1411 22-06-2020 21:30:00 20.7 C 11.34 g/m*3 20.7 C 3.2 km/h
1412 22-06-2020 21:35:00 20.1 C 11.13 g/m*3 20.1 C 1.6 km/h
1413 22-06-2020 21:40:00 19.5 C 11.08 g/m*3 19.5 C 4.8 km/h
1414 22-06-2020 21:45:00 19.1 C 10.82 g/m*3 19.1 C 6.4 km/h
1415 22-06-2020 21:50:00 18.7 C 10.89 g/m*3 18.7 C 6.4 km/h
1416 22-06-2020 21:55:00 18.3 C 10.63 g/m*3 18.3 C 6.4 km/h
1417 22-06-2020 22:00:00 18.1 C 10.51 g/m*3 18.1 C 8.1 km/h
1418 22-06-2020 22:05:00 17.8 C 10.47 g/m*3 17.8 C 8.1 km/h
1419 22-06-2020 22:10:00 17.7 C 10.41 g/m*3 17.7 C 8.1 km/h
1420 22-06-2020 22:15:00 17.5 C 10.44 g/m*3 17.5 C 8.1 km/h
1421 22-06-2020 22:20:00 17.3 C 10.46 g/m*3 17.3 C 8.1 km/h
1422 22-06-2020 22:25:00 17.2 C 10.25 g/m*3 17.2 C 8.1 km/h
1423 22-06-2020 22:30:00 17.1 C 10.34 g/m*3 17.1 C 8.1 km/h
1424 22-06-2020 22:35:00 16.9 C 10.21 g/m*3 16.9 C 8.1 km/h
1425 22-06-2020 22:40:00 16.8 C 10.44 g/m*3 16.8 C 6.4 km/h
Sensor: Nr:Datum:Temp:Abs-Feuchte:Windchill:Wind:
Aussen-T/F 1426 22-06-2020 22:45:00 16.8 C 10.58 g/m*3 16.8 C 0 km/h
1427 22-06-2020 22:50:00 16.7 C 10.66 g/m*3 16.7 C 0 km/h
1428 22-06-2020 22:55:00 16.4 C 10.33 g/m*3 16.4 C 4.8 km/h
1429 22-06-2020 23:00:00 16.3 C 10.54 g/m*3 16.3 C 0 km/h
1430 22-06-2020 23:05:00 16.1 C 10.42 g/m*3 16.1 C 0 km/h
1431 22-06-2020 23:10:00 15.9 C 10.56 g/m*3 15.9 C 0 km/h
1432 22-06-2020 23:15:00 15.7 C 10.57 g/m*3 15.7 C 0 km/h
1433 22-06-2020 23:20:00 15.6 C 10.51 g/m*3 15.6 C 0 km/h
1434 22-06-2020 23:25:00 15.4 C 10.51 g/m*3 15.4 C 0 km/h
1435 22-06-2020 23:30:00 15.2 C 10.38 g/m*3 15.2 C 0 km/h
1436 22-06-2020 23:35:00 15.1 C 10.45 g/m*3 15.1 C 0 km/h
1437 22-06-2020 23:40:00 14.9 C 10.2 g/m*3 14.9 C 0 km/h
1438 22-06-2020 23:45:00 14.7 C 10.2 g/m*3 14.7 C 0 km/h
1439 22-06-2020 23:50:00 14.7 C 10.32 g/m*3 14.7 C 0 km/h
1440 22-06-2020 23:55:00 14.6 C 10.39 g/m*3 14.6 C 0 km/h

Legende:
   Min
   Max


Maximal/Minimal-Werte vom 14.04.2020 - 16.05.2020

Sensor Min Max Avg
Temp
(Aussen-T/F)
-0.1 °C
15-04-2020  06:55:00
26.2 °C
17-04-2020  18:05:00
11.98 °C

Die Daten stammen von einer Davis Vantage Pro 2 Wetter-Station und werden unter Linux mit der Software wview2wettercgi und aufbereitet. Alle Angaben erfolgen ohne Gewähr für ihre Vollständigkeit oder Richtigkeit.
Kontakt: Rainer Krienke krienke@uni-koblenz.de . Meine Webseiten an der Uni Koblenz oder privat.
Version: $Revision: 0.78 $